FW2681 Weather Reports


Display with metric or nautical units.
time (UTC)temp
F
wind
direction
speed
MPH
gust
MPH
rain 1hr
in
rain 24hr
in
rain mn
in
humidity
%
barometer
mb
20200408224104 89 250 3.0 9.0 0.00 0.00 0.00 28 1001.3
20200408224004 89 247 2.0 9.0 0.00 0.00 0.00 27 1001.3
20200408223905 89 244 2.0 9.0 0.00 0.00 0.00 27 1001.4
20200408223804 89 243 3.0 9.0 0.00 0.00 0.00 28 1001.4
20200408223704 89 240 3.0 9.0 0.00 0.00 0.00 28 1001.4
20200408223604 89 240 3.0 9.0 0.00 0.00 0.00 27 1001.4
20200408223505 90 236 3.0 9.0 0.00 0.00 0.00 27 1001.5
20200408223404 90 234 4.0 9.0 0.00 0.00 0.00 28 1001.5
20200408223304 90 235 4.0 11.0 0.00 0.00 0.00 28 1001.5
20200408223204 90 239 4.0 11.0 0.00 0.00 0.00 27 1001.5
20200408223104 90 237 4.0 11.0 0.00 0.00 0.00 27 1001.5
20200408223005 90 235 4.0 11.0 0.00 0.00 0.00 28 1001.5
20200408222904 90 237 4.0 11.0 0.00 0.00 0.00 27 1001.6
20200408222804 90 237 4.0 11.0 0.00 0.00 0.00 27 1001.5
20200408222704 90 237 4.0 11.0 0.00 0.00 0.00 26 1001.5
20200408222604 90 236 4.0 11.0 0.00 0.00 0.00 27 1001.5
20200408222504 90 236 4.0 11.0 0.00 0.00 0.00 27 1001.5
20200408222404 90 236 3.0 11.0 0.00 0.00 0.00 27 1001.5
20200408222304 90 236 3.0 10.0 0.00 0.00 0.00 26 1001.5
20200408222204 90 235 3.0 10.0 0.00 0.00 0.00 27 1001.5
20200408222104 90 237 3.0 10.0 0.00 0.00 0.00 26 1001.6
20200408222004 90 238 3.0 10.0 0.00 0.00 0.00 28 1001.6
20200408221904 90 240 3.0 10.0 0.00 0.00 0.00 27 1001.6
20200408221806 90 239 3.0 10.0 0.00 0.00 0.00 27 1001.7
20200408221704 90 238 3.0 10.0 0.00 0.00 0.00 26 1001.7
20200408221604 90 237 2.0 10.0 0.00 0.00 0.00 29 1001.6
20200408221505 90 238 2.0 8.0 0.00 0.00 0.00 30 1001.6
20200408221405 90 238 2.0 9.0 0.00 0.00 0.00 30 1001.6
20200408221304 90 239 2.0 9.0 0.00 0.00 0.00 29 1001.6
20200408221204 90 236 3.0 9.0 0.00 0.00 0.00 29 1001.7
20200408221104 90 239 3.0 9.0 0.00 0.00 0.00 30 1001.7
20200408221004 90 237 3.0 9.0 0.00 0.00 0.00 29 1001.7
20200408220904 90 231 3.0 9.0 0.00 0.00 0.00 28 1001.7
20200408220804 90 232 3.0 9.0 0.00 0.00 0.00 29 1001.7
20200408220704 90 233 2.0 9.0 0.00 0.00 0.00 30 1001.7
20200408220605 90 232 2.0 9.0 0.00 0.00 0.00 30 1001.7
20200408220504 89 230 2.0 9.0 0.00 0.00 0.00 31 1001.8
20200408220404 89 230 2.0 9.0 0.00 0.00 0.00 31 1001.8
20200408220304 89 224 1.0 9.0 0.00 0.00 0.00 31 1001.8
20200408220205 89 220 1.0 9.0 0.00 0.00 0.00 29 1001.8
20200408220104 89 194 1.0 5.0 0.00 0.00 0.00 31 1001.8
20200408220005 89 190 1.0 5.0 0.00 0.00 0.00 30 1001.8
20200408215904 89 200 1.0 5.0 0.00 0.00 0.00 32 1001.8
20200408215804 89 198 1.0 5.0 0.00 0.00 0.00 31 1001.8
20200408215705 89 196 1.0 5.0 0.00 0.00 0.00 30 1001.8
20200408215604 89 201 2.0 5.0 0.00 0.00 0.00 31 1001.9
20200408215504 89 214 2.0 10.0 0.00 0.00 0.00 31 1001.9
20200408215404 89 214 2.0 10.0 0.00 0.00 0.00 32 1001.9
20200408215304 89 216 2.0 10.0 0.00 0.00 0.00 31 1002.0
20200408215204 89 218 2.0 10.0 0.00 0.00 0.00 30 1002.0
20200408215104 89 224 2.0 10.0 0.00 0.00 0.00 29 1002.0
20200408215004 89 231 3.0 11.0 0.00 0.00 0.00 30 1002.1
20200408214904 89 231 3.0 11.0 0.00 0.00 0.00 29 1002.1
20200408214804 89 235 3.0 11.0 0.00 0.00 0.00 30 1002.1
20200408214704 89 234 3.0 11.0 0.00 0.00 0.00 29 1002.2
20200408214604 89 234 3.0 11.0 0.00 0.00 0.00 31 1002.2
20200408214505 89 231 3.0 11.0 0.00 0.00 0.00 31 1002.2
20200408214404 89 230 4.0 11.0 0.00 0.00 0.00 31 1002.2
20200408214305 89 227 4.0 11.0 0.00 0.00 0.00 30 1002.2
20200408214204 89 226 4.0 11.0 0.00 0.00 0.00 30 1002.3
20200408214104 89 225 4.0 11.0 0.00 0.00 0.00 30 1002.3
20200408214004 89 225 3.0 11.0 0.00 0.00 0.00 30 1002.4
20200408213905 89 225 3.0 11.0 0.00 0.00 0.00 30 1002.4
20200408213805 89 221 3.0 7.0 0.00 0.00 0.00 30 1002.4
20200408213706 89 222 3.0 8.0 0.00 0.00 0.00 29 1002.4
20200408213605 89 222 3.0 8.0 0.00 0.00 0.00 28 1002.4
20200408213504 89 222 3.0 8.0 0.00 0.00 0.00 28 1002.5
20200408213404 89 208 3.0 11.0 0.00 0.00 0.00 27 1002.4
20200408213305 89 210 3.0 11.0 0.00 0.00 0.00 28 1002.6
20200408213204 89 209 3.0 11.0 0.00 0.00 0.00 28 1002.6
20200408213105 89 208 2.0 11.0 0.00 0.00 0.00 28 1002.6
20200408213006 89 203 2.0 11.0 0.00 0.00 0.00 29 1002.5
20200408212904 90 201 2.0 11.0 0.00 0.00 0.00 27 1002.6
20200408212804 90 200 2.0 11.0 0.00 0.00 0.00 28 1002.6
20200408212704 90 197 2.0 11.0 0.00 0.00 0.00 29 1002.7
20200408212604 90 192 2.0 11.0 0.00 0.00 0.00 28 1002.6
20200408212504 90 193 2.0 11.0 0.00 0.00 0.00 27 1002.7
20200408212405 90 211 2.0 6.0 0.00 0.00 0.00 28 1002.8
20200408212305 90 215 3.0 8.0 0.00 0.00 0.00 28 1002.8
20200408212204 90 220 3.0 8.0 0.00 0.00 0.00 27 1002.8
20200408212104 90 221 3.0 8.0 0.00 0.00 0.00 27 1002.8
20200408212004 90 226 3.0 8.0 0.00 0.00 0.00 27 1002.9
20200408211905 90 225 3.0 8.0 0.00 0.00 0.00 27 1002.9
20200408211804 90 225 3.0 8.0 0.00 0.00 0.00 26 1003.0
20200408211704 90 226 3.0 8.0 0.00 0.00 0.00 28 1002.9
20200408211604 90 230 2.0 8.0 0.00 0.00 0.00 29 1002.9
20200408211505 90 231 2.0 8.0 0.00 0.00 0.00 30 1003.0
20200408211404 90 232 2.0 8.0 0.00 0.00 0.00 29 1003.0
20200408211305 90 236 2.0 7.0 0.00 0.00 0.00 28 1003.0
20200408211204 90 237 2.0 7.0 0.00 0.00 0.00 27 1003.0
20200408211104 90 234 2.0 8.0 0.00 0.00 0.00 28 1003.1
20200408211004 90 227 2.0 8.0 0.00 0.00 0.00 27 1003.1
20200408210904 90 228 2.0 8.0 0.00 0.00 0.00 27 1003.2
20200408210804 90 226 2.0 8.0 0.00 0.00 0.00 28 1003.1
20200408210704 90 227 2.0 8.0 0.00 0.00 0.00 28 1003.1
20200408210605 90 227 2.0 8.0 0.00 0.00 0.00 27 1003.2
20200408210504 90 224 2.0 8.0 0.00 0.00 0.00 28 1003.2
20200408210404 90 218 2.0 8.0 0.00 0.00 0.00 27 1003.2
20200408210304 90 210 2.0 8.0 0.00 0.00 0.00 28 1003.2
20200408210204 90 208 1.0 8.0 0.00 0.00 0.00 30 1003.2
20200408210104 90 203 2.0 7.0 0.00 0.00 0.00 30 1003.3
20200408210005 90 214 2.0 9.0 0.00 0.00 0.00 29 1003.3
20200408205904 90 216 2.0 9.0 0.00 0.00 0.00 29 1003.3
20200408205804 90 221 3.0 9.0 0.00 0.00 0.00 29 1003.3
20200408205704 89 225 3.0 14.0 0.00 0.00 0.00 29 1003.4
20200408205604 89 225 3.0 14.0 0.00 0.00 0.00 29 1003.4
20200408205504 89 225 3.0 14.0 0.00 0.00 0.00 28 1003.4
20200408205404 89 224 4.0 14.0 0.00 0.00 0.00 29 1003.4
20200408205304 89 221 4.0 14.0 0.00 0.00 0.00 29 1003.5
20200408205204 89 222 4.0 14.0 0.00 0.00 0.00 28 1003.6
20200408205105 89 220 4.0 14.0 0.00 0.00 0.00 29 1003.6
20200408205004 89 217 4.0 14.0 0.00 0.00 0.00 29 1003.6
20200408204904 89 219 4.0 14.0 0.00 0.00 0.00 29 1003.5
20200408204804 89 217 3.0 14.0 0.00 0.00 0.00 28 1003.5
20200408204704 89 211 3.0 12.0 0.00 0.00 0.00 28 1003.5
20200408204605 89 212 3.0 12.0 0.00 0.00 0.00 27 1003.5
20200408204505 89 210 3.0 12.0 0.00 0.00 0.00 28 1003.6
20200408204405 89 208 3.0 12.0 0.00 0.00 0.00 29 1003.6
20200408204304 89 207 2.0 10.0 0.00 0.00 0.00 30 1003.6
20200408204204 89 201 2.0 6.0 0.00 0.00 0.00 34 1003.6
20200408204104 89 202 2.0 6.0 0.00 0.00 0.00 34 1003.7
20200408204005 89 203 2.0 6.0 0.00 0.00 0.00 33 1003.7
20200408203904 89 189 2.0 5.0 0.00 0.00 0.00 32 1003.8
20200408203804 89 184 2.0 5.0 0.00 0.00 0.00 33 1003.7
20200408203704 89 179 2.0 5.0 0.00 0.00 0.00 34 1003.8
20200408203604 89 169 2.0 5.0 0.00 0.00 0.00 35 1003.8
20200408203505 89 171 2.0 5.0 0.00 0.00 0.00 36 1003.8
20200408203404 89 177 2.0 5.0 0.00 0.00 0.00 35 1003.8
20200408203304 89 182 2.0 5.0 0.00 0.00 0.00 34 1003.8
20200408203204 89 186 2.0 5.0 0.00 0.00 0.00 33 1003.9
20200408203104 89 202 2.0 7.0 0.00 0.00 0.00 36 1003.9
20200408203005 89 216 2.0 10.0 0.00 0.00 0.00 34 1003.9
20200408202904 89 232 3.0 10.0 0.00 0.00 0.00 34 1003.9
20200408202805 89 236 3.0 10.0 0.00 0.00 0.00 36 1004.0
20200408202704 89 239 3.0 10.0 0.00 0.00 0.00 37 1004.0
20200408202604 89 240 4.0 10.0 0.00 0.00 0.00 36 1004.0
20200408202504 89 239 4.0 11.0 0.00 0.00 0.00 36 1004.0
20200408202405 89 242 4.0 11.0 0.00 0.00 0.00 36 1004.0
20200408202304 89 243 4.0 11.0 0.00 0.00 0.00 36 1004.0
20200408202204 89 240 4.0 11.0 0.00 0.00 0.00 34 1004.0
20200408202104 89 235 4.0 11.0 0.00 0.00 0.00 34 1004.0
20200408202004 89 231 3.0 11.0 0.00 0.00 0.00 35 1004.1
20200408201905 89 227 3.0 11.0 0.00 0.00 0.00 34 1004.1
20200408201804 89 221 3.0 11.0 0.00 0.00 0.00 33 1004.2
20200408201704 89 216 3.0 11.0 0.00 0.00 0.00 33 1004.2
20200408201604 89 212 2.0 11.0 0.00 0.00 0.00 34 1004.3
20200408201506 89 202 2.0 8.0 0.00 0.00 0.00 34 1004.2
20200408201404 89 195 2.0 8.0 0.00 0.00 0.00 33 1004.2
20200408201304 89 189 2.0 8.0 0.00 0.00 0.00 32 1004.2
20200408201204 89 203 2.0 9.0 0.00 0.00 0.00 35 1004.2
20200408201104 89 218 2.0 10.0 0.00 0.00 0.00 33 1004.3
20200408201004 89 214 3.0 10.0 0.00 0.00 0.00 32 1004.3
20200408200904 89 216 3.0 10.0 0.00 0.00 0.00 31 1004.4
20200408200804 89 221 3.0 10.0 0.00 0.00 0.00 32 1004.4
20200408200705 89 220 3.0 10.0 0.00 0.00 0.00 34 1004.5
20200408200604 89 217 3.0 10.0 0.00 0.00 0.00 35 1004.5
20200408200504 89 222 3.0 10.0 0.00 0.00 0.00 36 1004.5
20200408200404 89 225 3.0 10.0 0.00 0.00 0.00 35 1004.5
20200408200304 89 229 3.0 10.0 0.00 0.00 0.00 33 1004.5
20200408200205 89 231 3.0 10.0 0.00 0.00 0.00 34 1004.5
20200408200104 89 230 3.0 8.0 0.00 0.00 0.00 33 1004.5
20200408200005 89 231 3.0 8.0 0.00 0.00 0.00 33 1004.5
20200408195904 89 232 2.0 8.0 0.00 0.00 0.00 34 1004.5
20200408195805 89 231 2.0 8.0 0.00 0.00 0.00 35 1004.5
20200408195704 89 239 3.0 8.0 0.00 0.00 0.00 34 1004.5
20200408195604 89 242 3.0 14.0 0.00 0.00 0.00 33 1004.4
20200408195505 89 245 3.0 14.0 0.00 0.00 0.00 34 1004.5
20200408195404 89 244 3.0 14.0 0.00 0.00 0.00 32 1004.5
20200408195304 89 241 3.0 14.0 0.00 0.00 0.00 35 1004.5
20200408195204 89 239 2.0 14.0 0.00 0.00 0.00 35 1004.5
20200408195111 89 241 3.0 14.0 0.00 0.00 0.00 36 1004.5
20200408195008 88 236 3.0 14.0 0.00 0.00 0.00 36 1004.5
20200408194904 88 233 3.0 14.0 0.00 0.00 0.00 34 1004.6
20200408194804 88 227 3.0 14.0 0.00 0.00 0.00 32 1004.6
20200408194705 88 225 3.0 14.0 0.00 0.00 0.00 31 1004.6
20200408194604 88 225 3.0 9.0 0.00 0.00 0.00 31 1004.7
20200408194505 88 221 3.0 10.0 0.00 0.00 0.00 33 1004.7
20200408194404 88 219 3.0 10.0 0.00 0.00 0.00 33 1004.7
20200408194304 88 218 3.0 10.0 0.00 0.00 0.00 34 1004.7
20200408194205 88 218 3.0 10.0 0.00 0.00 0.00 33 1004.8
20200408194105 88 214 3.0 10.0 0.00 0.00 0.00 32 1004.7
20200408194004 88 212 3.0 10.0 0.00 0.00 0.00 34 1004.9
20200408193904 88 213 3.0 10.0 0.00 0.00 0.00 33 1004.8
20200408193804 88 223 3.0 10.0 0.00 0.00 0.00 36 1004.8
20200408193705 88 220 2.0 10.0 0.00 0.00 0.00 35 1004.9
20200408193604 88 215 3.0 10.0 0.00 0.00 0.00 36 1004.9
20200408193504 88 217 3.0 8.0 0.00 0.00 0.00 36 1004.9
20200408193404 88 225 4.0 10.0 0.00 0.00 0.00 34 1004.9
20200408193304 88 230 4.0 11.0 0.00 0.00 0.00 35 1005.0
20200408193206 88 235 4.0 11.0 0.00 0.00 0.00 34 1005.0
20200408193104 88 236 4.0 11.0 0.00 0.00 0.00 33 1005.0
20200408193006 88 240 4.0 11.0 0.00 0.00 0.00 34 1005.0
20200408192905 88 241 3.0 11.0 0.00 0.00 0.00 33 1005.0
20200408192804 88 240 3.0 11.0 0.00 0.00 0.00 33 1005.0
20200408192705 88 241 4.0 11.0 0.00 0.00 0.00 32 1005.0
20200408192604 88 241 4.0 11.0 0.00 0.00 0.00 33 1005.1
20200408192504 88 243 3.0 11.0 0.00 0.00 0.00 32 1005.1
20200408192404 88 241 2.0 11.0 0.00 0.00 0.00 34 1005.1
20200408192304 88 239 2.0 8.0 0.00 0.00 0.00 32 1005.2
20200408192204 88 227 2.0 7.0 0.00 0.00 0.00 34 1005.2
20200408192104 88 220 2.0 7.0 0.00 0.00 0.00 37 1005.2
20200408192004 88 219 2.0 7.0 0.00 0.00 0.00 34 1005.2
20200408191904 88 206 3.0 8.0 0.00 0.00 0.00 35 1005.2
20200408191805 88 185 3.0 9.0 0.00 0.00 0.00 35 1005.2
20200408191704 88 172 3.0 9.0 0.00 0.00 0.00 34 1005.2
20200408191604 88 153 3.0 9.0 0.00 0.00 0.00 34 1005.2
20200408191505 87 141 3.0 9.0 0.00 0.00 0.00 34 1005.3
20200408191404 87 138 4.0 9.0 0.00 0.00 0.00 34 1005.3
20200408191305 87 132 4.0 10.0 0.00 0.00 0.00 36 1005.3
20200408191206 87 131 4.0 10.0 0.00 0.00 0.00 36 1005.3
20200408191105 87 130 4.0 10.0 0.00 0.00 0.00 37 1005.3
20200408191016 87 130 4.0 10.0 0.00 0.00 0.00 35 1005.3
20200408190905 87 130 3.0 10.0 0.00 0.00 0.00 37 1005.3
20200408190808 87 133 3.0 10.0 0.00 0.00 0.00 35 1005.3
20200408190705 87 134 3.0 10.0 0.00 0.00 0.00 36 1005.4
20200408190607 87 136 3.0 10.0 0.00 0.00 0.00 37 1005.4
20200408190505 87 138 2.0 10.0 0.00 0.00 0.00 39 1005.4
20200408190410 87 145 2.0 10.0 0.00 0.00 0.00 36 1005.4
20200408190305 87 155 2.0 10.0 0.00 0.00 0.00 36 1005.4
20200408190206 87 169 2.0 8.0 0.00 0.00 0.00 36 1005.5
20200408190109 87 170 1.0 8.0 0.00 0.00 0.00 36 1005.5
20200408190005 87 177 1.0 8.0 0.00 0.00 0.00 35 1005.5
20200408185905 87 198 1.0 6.0 0.00 0.00 0.00 34 1005.5
20200408185805 87 197 1.0 6.0 0.00 0.00 0.00 34 1005.5
20200408185706 87 179 1.0 6.0 0.00 0.00 0.00 33 1005.5
20200408185605 87 164 1.0 6.0 0.00 0.00 0.00 33 1005.6
20200408185505 87 148 1.0 6.0 0.00 0.00 0.00 36 1005.6
20200408185406 87 130 1.0 5.0 0.00 0.00 0.00 37 1005.6
20200408185304 87 122 2.0 8.0 0.00 0.00 0.00 40 1005.7
20200408185204 87 123 2.0 8.0 0.00 0.00 0.00 44 1005.7
20200408185104 87 123 2.0 8.0 0.00 0.00 0.00 40 1005.7
20200408185004 87 124 2.0 8.0 0.00 0.00 0.00 40 1005.7
20200408184904 87 124 2.0 8.0 0.00 0.00 0.00 39 1005.7
20200408184804 87 126 3.0 8.0 0.00 0.00 0.00 40 1005.8
20200408184704 87 126 3.0 8.0 0.00 0.00 0.00 39 1005.8
20200408184604 87 126 3.0 8.0 0.00 0.00 0.00 39 1005.9
20200408184505 87 126 3.0 8.0 0.00 0.00 0.00 38 1005.9
20200408184404 87 125 2.0 8.0 0.00 0.00 0.00 40 1005.9
20200408184305 87 125 2.0 7.0 0.00 0.00 0.00 39 1005.8
20200408184204 87 124 2.0 7.0 0.00 0.00 0.00 39 1005.9
20200408184104 87 125 1.0 7.0 0.00 0.00 0.00 39 1005.9
20200408184004 87 125 1.0 7.0 0.00 0.00 0.00 38 1006.0
20200408183904 87 124 1.0 7.0 0.00 0.00 0.00 39 1006.0
20200408183804 87 119 0.0 7.0 0.00 0.00 0.00 42 1006.0
20200408183705 87 112 0.0 2.0 0.00 0.00 0.00 40 1006.0
20200408183604 87 121 0.0 2.0 0.00 0.00 0.00 40 1006.0
20200408183505 87 124 0.0 2.0 0.00 0.00 0.00 41 1006.0
20200408183404 87 131 0.0 2.0 0.00 0.00 0.00 37 1006.0
20200408183304 87 135 0.0 3.0 0.00 0.00 0.00 38 1006.1
20200408183204 87 141 0.0 3.0 0.00 0.00 0.00 38 1006.1
20200408183104 87 140 1.0 3.0 0.00 0.00 0.00 37 1006.1
20200408183005 87 139 1.0 4.0 0.00 0.00 0.00 39 1006.1
20200408182905 87 139 1.0 5.0 0.00 0.00 0.00 38 1006.1
20200408182804 87 139 1.0 5.0 0.00 0.00 0.00 39 1006.1
20200408182704 86 139 1.0 5.0 0.00 0.00 0.00 40 1006.1
20200408182604 86 139 1.0 5.0 0.00 0.00 0.00 39 1006.2
20200408182504 86 139 1.0 5.0 0.00 0.00 0.00 37 1006.3
20200408182405 86 139 1.0 5.0 0.00 0.00 0.00 37 1006.3
20200408182305 86 139 1.0 5.0 0.00 0.00 0.00 41 1006.2
20200408182204 86 139 1.0 5.0 0.00 0.00 0.00 39 1006.3
20200408182104 86 139 1.0 5.0 0.00 0.00 0.00 38 1006.3
20200408182004 86 139 1.0 5.0 0.00 0.00 0.00 41 1006.2
20200408181905 86 139 1.0 4.0 0.00 0.00 0.00 40 1006.3
20200408181804 86 139 1.0 4.0 0.00 0.00 0.00 40 1006.3
20200408181704 86 139 1.0 4.0 0.00 0.00 0.00 39 1006.3
20200408181604 86 139 2.0 4.0 0.00 0.00 0.00 38 1006.4
20200408181505 86 139 2.0 4.0 0.00 0.00 0.00 36 1006.4
20200408181404 86 139 2.0 4.0 0.00 0.00 0.00 38 1006.4
20200408181304 86 139 1.0 4.0 0.00 0.00 0.00 38 1006.4
20200408181205 86 139 1.0 4.0 0.00 0.00 0.00 38 1006.4
20200408181104 86 139 2.0 3.0 0.00 0.00 0.00 39 1006.4
20200408181004 86 138 2.0 6.0 0.00 0.00 0.00 37 1006.4
20200408180904 86 136 2.0 6.0 0.00 0.00 0.00 40 1006.4
20200408180804 85 134 2.0 6.0 0.00 0.00 0.00 39 1006.5
20200408180705 85 133 2.0 6.0 0.00 0.00 0.00 38 1006.5
20200408180604 85 131 2.0 6.0 0.00 0.00 0.00 38 1006.5
20200408180505 85 130 2.0 6.0 0.00 0.00 0.00 39 1006.5
20200408180412 85 130 2.0 6.0 0.00 0.00 0.00 41 1006.5
20200408180307 85 128 2.0 6.0 0.00 0.00 0.00 40 1006.6
20200408180206 85 127 1.0 6.0 0.00 0.00 0.00 40 1006.6
20200408180105 85 125 1.0 6.0 0.00 0.00 0.00 42 1006.6
20200408180005 85 125 1.0 4.0 0.00 0.00 0.00 40 1006.6
20200408175904 85 125 1.0 4.0 0.00 0.00 0.00 41 1006.7
20200408175804 85 126 1.0 4.0 0.00 0.00 0.00 42 1006.7
20200408175705 85 128 1.0 4.0 0.00 0.00 0.00 40 1006.7
20200408175604 85 130 1.0 5.0 0.00 0.00 0.00 39 1006.8
20200408175504 85 131 1.0 7.0 0.00 0.00 0.00 45 1006.7
20200408175404 85 128 1.0 7.0 0.00 0.00 0.00 42 1006.8
20200408175305 85 128 2.0 7.0 0.00 0.00 0.00 42 1006.8
20200408175205 84 128 2.0 7.0 0.00 0.00 0.00 38 1006.9
20200408175104 84 128 2.0 7.0 0.00 0.00 0.00 39 1006.8
20200408175004 84 126 2.0 7.0 0.00 0.00 0.00 37 1006.9
20200408174904 84 126 2.0 7.0 0.00 0.00 0.00 38 1006.9
20200408174804 84 125 2.0 7.0 0.00 0.00 0.00 39 1006.9
20200408174705 84 124 2.0 7.0 0.00 0.00 0.00 37 1006.9
20200408174604 84 122 1.0 7.0 0.00 0.00 0.00 38 1006.9
20200408174505 84 119 1.0 7.0 0.00 0.00 0.00 40 1007.0
20200408174404 84 122 1.0 7.0 0.00 0.00 0.00 37 1007.0
20200408174305 84 122 1.0 7.0 0.00 0.00 0.00 37 1007.0
20200408174204 84 120 1.0 7.0 0.00 0.00 0.00 40 1007.0
20200408174104 84 119 1.0 5.0 0.00 0.00 0.00 40 1007.1
20200408174004 84 121 1.0 5.0 0.00 0.00 0.00 42 1007.1
20200408173905 84 121 2.0 5.0 0.00 0.00 0.00 43 1007.1
20200408173804 84 121 2.0 5.0 0.00 0.00 0.00 43 1007.1
20200408173704 84 121 2.0 5.0 0.00 0.00 0.00 43 1007.1
20200408173604 84 120 2.0 5.0 0.00 0.00 0.00 42 1007.1
20200408173504 84 121 2.0 5.0 0.00 0.00 0.00 40 1007.1
20200408173404 84 121 2.0 5.0 0.00 0.00 0.00 42 1007.2
20200408173304 83 121 3.0 5.0 0.00 0.00 0.00 41 1007.3
20200408173204 83 122 2.0 8.0 0.00 0.00 0.00 42 1007.3
20200408173104 83 122 2.0 8.0 0.00 0.00 0.00 41 1007.3
20200408173005 83 121 2.0 8.0 0.00 0.00 0.00 40 1007.3
20200408172904 83 121 2.0 8.0 0.00 0.00 0.00 41 1007.3
20200408172804 83 122 2.0 8.0 0.00 0.00 0.00 43 1007.3
20200408172704 83 122 2.0 8.0 0.00 0.00 0.00 42 1007.4
20200408172604 83 122 2.0 8.0 0.00 0.00 0.00 40 1007.4
20200408172504 83 122 2.0 8.0 0.00 0.00 0.00 44 1007.4
20200408172404 83 123 2.0 8.0 0.00 0.00 0.00 44 1007.4
20200408172304 83 122 2.0 8.0 0.00 0.00 0.00 45 1007.5
20200408172204 83 121 2.0 7.0 0.00 0.00 0.00 45 1007.5
20200408172104 83 122 2.0 7.0 0.00 0.00 0.00 47 1007.5
20200408172004 83 124 2.0 7.0 0.00 0.00 0.00 45 1007.5
20200408171904 83 124 2.0 7.0 0.00 0.00 0.00 46 1007.6
20200408171804 83 124 2.0 7.0 0.00 0.00 0.00 44 1007.6
20200408171705 83 124 2.0 7.0 0.00 0.00 0.00 43 1007.6
20200408171604 83 124 1.0 7.0 0.00 0.00 0.00 43 1007.6
20200408171505 83 124 1.0 7.0 0.00 0.00 0.00 44 1007.6
20200408171404 83 123 2.0 7.0 0.00 0.00 0.00 47 1007.7
20200408171304 83 116 2.0 7.0 0.00 0.00 0.00 46 1007.7
20200408171205 83 106 1.0 7.0 0.00 0.00 0.00 47 1007.7
20200408171104 83 96 2.0 5.0 0.00 0.00 0.00 48 1007.7
20200408171004 83 90 2.0 5.0 0.00 0.00 0.00 45 1007.7
20200408170904 83 90 2.0 5.0 0.00 0.00 0.00 46 1007.7
20200408170804 83 94 2.0 5.0 0.00 0.00 0.00 47 1007.8
20200408170705 83 92 2.0 5.0 0.00 0.00 0.00 48 1007.8
20200408170604 83 96 2.0 5.0 0.00 0.00 0.00 49 1007.9
20200408170504 83 96 2.0 5.0 0.00 0.00 0.00 50 1007.9
20200408170405 83 93 2.0 5.0 0.00 0.00 0.00 52 1007.9
20200408170305 83 99 2.0 5.0 0.00 0.00 0.00 51 1007.9
20200408170204 83 114 2.0 5.0 0.00 0.00 0.00 50 1007.9
20200408170104 82 118 1.0 5.0 0.00 0.00 0.00 49 1008.0
20200408170005 82 129 1.0 5.0 0.00 0.00 0.00 52 1008.0
20200408165905 82 136 1.0 5.0 0.00 0.00 0.00 49 1008.0
20200408165804 82 145 1.0 3.0 0.00 0.00 0.00 49 1008.0
20200408165704 82 145 1.0 3.0 0.00 0.00 0.00 50 1008.0
20200408165604 82 145 1.0 4.0 0.00 0.00 0.00 49 1008.0
20200408165504 82 145 1.0 4.0 0.00 0.00 0.00 50 1008.0
20200408165405 82 145 0.0 4.0 0.00 0.00 0.00 51 1008.1
20200408165304 82 145 0.0 4.0 0.00 0.00 0.00 54 1008.1
20200408165204 82 145 0.0 6.0 0.00 0.00 0.00 53 1008.1
20200408165105 82 150 0.0 6.0 0.00 0.00 0.00 54 1008.1
20200408165004 82 151 0.0 6.0 0.00 0.00 0.00 55 1008.3
20200408164904 82 151 1.0 6.0 0.00 0.00 0.00 56 1008.2
20200408164804 82 155 1.0 6.0 0.00 0.00 0.00 55 1008.3
20200408164704 82 156 0.0 6.0 0.00 0.00 0.00 54 1008.3
20200408164604 82 158 0.0 6.0 0.00 0.00 0.00 55 1008.3
20200408164505 82 159 0.0 6.0 0.00 0.00 0.00 57 1008.3
20200408164404 82 160 1.0 6.0 0.00 0.00 0.00 56 1008.3
20200408164304 82 163 1.0 6.0 0.00 0.00 0.00 55 1008.3
20200408164204 82 171 0.0 5.0 0.00 0.00 0.00 58 1008.4
20200408164104 81 174 0.0 4.0 0.00 0.00 0.00 58 1008.4
20200408164004 81 174 0.0 4.0 0.00 0.00 0.00 55 1008.4
20200408163904 81 174 0.0 4.0 0.00 0.00 0.00 56 1008.4
20200408163804 81 175 0.0 4.0 0.00 0.00 0.00 59 1008.4
20200408163705 81 175 0.0 4.0 0.00 0.00 0.00 57 1008.4
20200408163604 81 175 0.0 4.0 0.00 0.00 0.00 57 1008.4
20200408163504 81 175 0.0 4.0 0.00 0.00 0.00 57 1008.5
20200408163404 81 175 0.0 4.0 0.00 0.00 0.00 58 1008.5
20200408163305 81 176 0.0 4.0 0.00 0.00 0.00 57 1008.4
20200408163204 81 176 0.0 4.0 0.00 0.00 0.00 58 1008.5
20200408163104 81 178 0.0 1.0 0.00 0.00 0.00 61 1008.5
20200408163005 80 178 0.0 1.0 0.00 0.00 0.00 61 1008.5
20200408162904 80 178 0.0 3.0 0.00 0.00 0.00 62 1008.5
20200408162804 80 178 0.0 3.0 0.00 0.00 0.00 61 1008.6
20200408162705 80 178 0.0 3.0 0.00 0.00 0.00 62 1008.6
20200408162604 80 178 0.0 3.0 0.00 0.00 0.00 61 1008.6
20200408162504 80 178 0.0 3.0 0.00 0.00 0.00 63 1008.6
20200408162404 80 179 1.0 3.0 0.00 0.00 0.00 62 1008.6
20200408162305 80 182 1.0 4.0 0.00 0.00 0.00 60 1008.6
20200408162204 80 181 1.0 4.0 0.00 0.00 0.00 61 1008.5
20200408162104 80 181 1.0 4.0 0.00 0.00 0.00 60 1008.5
20200408162004 80 181 1.0 4.0 0.00 0.00 0.00 60 1008.5
20200408161904 80 179 1.0 4.0 0.00 0.00 0.00 61 1008.6
20200408161805 79 175 1.0 4.0 0.00 0.00 0.00 61 1008.6
20200408161704 79 175 0.0 4.0 0.00 0.00 0.00 62 1008.6
20200408161604 79 173 1.0 4.0 0.00 0.00 0.00 62 1008.6
20200408161505 79 166 1.0 4.0 0.00 0.00 0.00 62 1008.6
20200408161404 79 157 1.0 5.0 0.00 0.00 0.00 62 1008.7
20200408161304 79 145 1.0 5.0 0.00 0.00 0.00 64 1008.7
20200408161204 79 140 1.0 5.0 0.00 0.00 0.00 63 1008.7
20200408161104 79 139 1.0 5.0 0.00 0.00 0.00 62 1008.7
20200408161004 79 135 2.0 5.0 0.00 0.00 0.00 62 1008.7
20200408160904 79 127 2.0 5.0 0.00 0.00 0.00 63 1008.7
20200408160804 79 123 2.0 5.0 0.00 0.00 0.00 63 1008.7
20200408160704 79 122 2.0 5.0 0.00 0.00 0.00 63 1008.7
20200408160604 79 122 2.0 5.0 0.00 0.00 0.00 62 1008.7
20200408160504 79 120 1.0 5.0 0.00 0.00 0.00 62 1008.7
20200408160404 79 117 1.0 5.0 0.00 0.02 0.00 63 1008.7
20200408160304 79 112 1.0 5.0 0.00 0.26 0.00 64 1008.7
20200408160205 79 104 1.0 5.0 0.00 0.26 0.00 64 1008.7
20200408160104 79 94 1.0 5.0 0.00 0.56 0.00 65 1008.7
20200408160008 79 58 0.0 4.0 0.00 0.81 0.00 64 1008.7
20200408155904 79 55 0.0 4.0 0.00 0.90 0.00 64 1008.7
20200408155804 79 342 0.0 3.0 0.00 0.92 0.00 66 1008.7
20200408155704 79 342 0.0 3.0 0.00 0.92 0.00 65 1008.7
20200408155604 79 342 0.0 3.0 0.00 0.92 0.00 65 1008.7
20200408155504 79 342 0.0 3.0 0.00 1.17 0.00 64 1008.7
20200408155404 79 342 0.0 3.0 0.00 1.20 0.00 65 1008.7
20200408155205 79 342 0.0 3.0 0.00 1.20 0.00 64 1008.8
20200408155104 79 342 0.0 3.0 0.00 1.20 0.00 65 1008.8
20200408155004 79 342 0.0 3.0 0.00 1.20 0.00 65 1008.7
20200408154904 79 342 0.0 2.0 0.00 1.20 0.00 64 1008.8
20200408154804 79 342 0.0 2.0 0.00 1.20 0.00 65 1008.8
20200408154704 79 342 0.0 2.0 0.00 1.20 0.00 66 1008.8
20200408154505 79 342 0.0 2.0 0.00 1.20 0.00 65 1008.8
20200408154404 79 342 0.0 2.0 0.00 1.20 0.00 65 1008.8
20200408154305 78 342 0.0 2.0 0.00 1.20 0.00 65 1008.7
20200408154204 78 342 0.0 2.0 0.00 1.20 0.00 65 1008.8
20200408154104 78 342 0.0 2.0 0.00 1.20 0.00 65 1008.8
20200408154004 78 342 0.0 2.0 0.00 1.20 0.00 66 1008.7
20200408153904 78 342 0.0 2.0 0.00 1.20 0.00 67 1008.8
20200408153804 78 341 0.0 2.0 0.00 1.20 0.00 69 1008.8
20200408153704 78 342 0.0 2.0 0.00 1.20 0.00 69 1008.8
20200408153605 78 342 0.0 2.0 0.00 1.20 0.00 68 1008.8
20200408153504 78 342 0.0 2.0 0.00 1.20 0.00 68 1008.8
20200408153404 78 342 0.0 2.0 0.00 1.20 0.00 68 1008.8
20200408153304 77 342 0.0 2.0 0.00 1.20 0.00 68 1008.8
20200408153205 77 342 0.0 2.0 0.00 1.20 0.00 68 1008.8
20200408153104 77 342 0.0 3.0 0.00 1.20 0.00 69 1008.8
20200408153005 77 342 0.0 3.0 0.00 1.20 0.00 66 1008.8
20200408152904 77 342 0.0 3.0 0.00 1.20 0.00 66 1008.8
20200408152804 77 342 0.0 3.0 0.00 1.20 0.00 66 1008.8
20200408152704 77 342 0.0 3.0 0.00 1.20 0.00 67 1008.8
20200408152605 77 342 0.0 3.0 0.00 1.20 0.00 66 1008.8
20200408152504 77 342 0.0 3.0 0.00 1.20 0.00 66 1008.8
20200408152404 77 342 0.0 3.0 0.00 1.20 0.00 65 1008.8
20200408152304 77 342 0.0 3.0 0.00 1.20 0.00 65 1008.9
20200408152205 77 342 0.0 3.0 0.00 1.20 0.00 66 1008.8
20200408152104 77 342 0.0 2.0 0.00 1.20 0.00 67 1008.8
20200408152004 77 342 0.0 2.0 0.00 1.20 0.00 66 1008.8
20200408151904 77 342 0.0 2.0 0.00 1.20 0.00 67 1008.8
20200408151804 77 342 0.0 2.0 0.00 1.20 0.00 67 1008.8
20200408151704 76 342 0.0 2.0 0.00 1.20 0.00 68 1008.8
20200408151604 76 342 0.0 2.0 0.00 1.20 0.00 69 1008.8
20200408151505 76 342 0.0 2.0 0.00 1.20 0.00 69 1008.8
20200408151406 76 342 0.0 2.0 0.00 1.20 0.00 69 1008.8
20200408151304 76 342 0.0 2.0 0.00 1.20 0.00 69 1008.7
20200408151204 76 342 0.0 2.0 0.00 1.20 0.00 69 1008.7
20200408151105 76 342 0.0 2.0 0.00 1.20 0.00 70 1008.8
20200408151004 76 342 0.0 2.0 0.00 1.20 0.00 70 1008.8
20200408150904 76 342 0.0 2.0 0.00 1.20 0.00 71 1008.8
20200408150804 75 342 0.0 2.0 0.00 1.20 0.00 72 1008.7
20200408150705 75 341 0.0 3.0 0.00 1.20 0.00 74 1008.7
20200408150604 75 340 0.0 3.0 0.00 1.20 0.00 74 1008.7
20200408150504 75 340 0.0 3.0 0.00 1.20 0.00 73 1008.7
20200408150404 75 340 1.0 3.0 0.00 1.20 0.00 72 1008.7
20200408150304 75 340 1.0 3.0 0.00 1.20 0.00 73 1008.7
20200408150204 74 340 1.0 3.0 0.00 1.20 0.00 73 1008.7
20200408150104 74 340 1.0 3.0 0.00 1.20 0.00 74 1008.7
20200408150005 74 339 1.0 3.0 0.00 1.20 0.00 73 1008.7
20200408145904 74 339 1.0 3.0 0.00 1.20 0.00 72 1008.7
20200408145804 74 339 0.0 3.0 0.00 1.20 0.00 73 1008.7
20200408145705 74 339 0.0 3.0 0.00 1.20 0.00 75 1008.7
20200408145604 74 338 0.0 2.0 0.00 1.20 0.00 75 1008.7
20200408145504 74 338 0.0 2.0 0.00 1.20 0.00 76 1008.7
20200408145404 73 338 0.0 2.0 0.00 1.20 0.00 76 1008.6
20200408145304 73 338 0.0 2.0 0.00 1.20 0.00 75 1008.6
20200408145204 73 338 0.0 2.0 0.00 1.20 0.00 75 1008.6
20200408145104 73 338 0.0 3.0 0.00 1.20 0.00 76 1008.6
20200408145004 73 338 0.0 3.0 0.00 1.20 0.00 77 1008.6
20200408144904 73 338 0.0 3.0 0.00 1.20 0.00 76 1008.6
20200408144804 73 338 0.0 3.0 0.00 1.20 0.00 76 1008.6
20200408144705 73 338 0.0 3.0 0.00 1.20 0.00 77 1008.6
20200408144604 73 338 1.0 3.0 0.00 1.20 0.00 75 1008.6
20200408144505 73 338 1.0 3.0 0.00 1.20 0.00 75 1008.6
20200408144404 72 338 1.0 3.0 0.00 1.20 0.00 76 1008.6
20200408144304 72 338 1.0 4.0 0.00 1.20 0.00 77 1008.6
20200408144204 72 338 1.0 4.0 0.00 1.20 0.00 76 1008.6
20200408144104 72 337 1.0 4.0 0.00 1.20 0.00 78 1008.7
20200408144004 72 337 1.0 4.0 0.00 1.20 0.00 77 1008.6
20200408143904 72 337 1.0 4.0 0.00 1.20 0.00 77 1008.7
20200408143804 72 337 1.0 4.0 0.00 1.20 0.00 77 1008.7
20200408143705 72 336 1.0 4.0 0.00 1.20 0.00 78 1008.6
20200408143606 72 336 1.0 4.0 0.00 1.20 0.00 78 1008.6
20200408143504 72 335 1.0 4.0 0.00 1.20 0.00 79 1008.7
20200408143404 72 335 1.0 4.0 0.00 1.20 0.00 79 1008.7
20200408143318 72 334 1.0 4.0 0.00 1.20 0.00 79 1008.7
20200408143233 72 333 0.0 4.0 0.00 1.20 0.00 80 1008.7
20200408143114 72 333 0.0 4.0 0.00 1.20 0.00 79 1008.7
20200408143005 72 332 0.0 4.0 0.00 1.20 0.00 79 1008.7
20200408142904 72 332 1.0 4.0 0.00 1.20 0.00 80 1008.7
20200408142804 72 332 1.0 4.0 0.00 1.20 0.00 80 1008.8
20200408142704 72 331 1.0 4.0 0.00 1.20 0.00 79 1008.8
20200408142604 71 328 1.0 4.0 0.00 1.20 0.00 80 1008.7
20200408142504 71 325 1.0 4.0 0.00 1.20 0.00 81 1008.8
20200408142405 71 324 1.0 4.0 0.00 1.20 0.00 81 1008.7
20200408142304 71 323 1.0 4.0 0.00 1.20 0.00 81 1008.7
20200408142204 71 323 1.0 4.0 0.00 1.20 0.00 81 1008.7
20200408142105 71 323 1.0 4.0 0.00 1.20 0.00 80 1008.8
20200408142004 71 323 1.0 4.0 0.00 1.20 0.00 80 1008.8
20200408141904 71 320 1.0 4.0 0.00 1.20 0.00 81 1008.8
20200408141804 71 316 1.0 4.0 0.00 1.35 0.00 81 1008.8
20200408141705 71 302 0.0 4.0 0.00 1.35 0.00 82 1008.8
20200408141604 71 296 0.0 2.0 0.00 1.38 0.00 83 1008.8
20200408141505 71 296 0.0 2.0 0.00 1.38 0.00 83 1008.8
20200408141404 71 295 0.0 2.0 0.00 1.38 0.00 83 1008.8
20200408141304 70 295 0.0 2.0 0.00 1.38 0.00 83 1008.9
20200408141204 70 296 0.0 2.0 0.00 1.38 0.00 83 1008.9
20200408141104 70 296 0.0 2.0 0.00 1.38 0.00 82 1008.9
20200408141005 70 295 0.0 2.0 0.00 1.38 0.00 83 1009.0
20200408140904 70 296 0.0 2.0 0.00 1.38 0.00 83 1009.0
20200408140804 70 296 0.0 2.0 0.00 1.38 0.00 83 1009.0
20200408140704 70 295 0.0 2.0 0.00 1.38 0.00 83 1009.0
20200408140604 70 296 0.0 2.0 0.00 1.38 0.00 83 1009.0
20200408140505 70 296 0.0 2.0 0.00 1.38 0.00 83 1009.1
20200408140404 70 296 0.0 2.0 0.00 1.38 0.00 84 1009.2
20200408140304 70 291 0.0 4.0 0.00 1.38 0.00 83 1009.2
20200408140205 70 291 0.0 4.0 0.00 1.38 0.00 83 1009.2
20200408140104 70 288 0.0 4.0 0.00 1.38 0.00 83 1009.3
20200408140006 70 288 0.0 4.0 0.00 1.38 0.00 84 1009.3
20200408135904 70 279 1.0 4.0 0.00 1.38 0.00 84 1009.3
20200408135804 70 273 1.0 4.0 0.00 1.38 0.00 84 1009.3
20200408135704 70 267 1.0 4.0 0.00 1.38 0.00 85 1009.4
20200408135605 70 255 1.0 4.0 0.00 1.38 0.00 84 1009.3
20200408135504 70 252 1.0 4.0 0.00 1.38 0.00 84 1009.3
20200408135404 69 250 1.0 4.0 0.00 1.38 0.00 84 1009.3
20200408135305 69 242 1.0 4.0 0.00 1.38 0.00 85 1009.3
20200408135204 69 242 1.0 4.0 0.00 1.38 0.00 85 1009.3
20200408135104 69 242 1.0 4.0 0.00 1.38 0.00 85 1009.3
20200408135004 69 242 1.0 4.0 0.00 1.38 0.00 85 1009.3
20200408134905 69 243 1.0 4.0 0.00 1.38 0.00 86 1009.3
20200408134804 69 243 1.0 4.0 0.00 1.38 0.00 86 1009.3
20200408134704 69 243 1.0 5.0 0.00 1.38 0.00 86 1009.3
20200408134604 69 243 1.0 5.0 0.00 1.38 0.00 87 1009.3
20200408134505 69 243 1.0 5.0 0.00 1.38 0.00 87 1009.3
20200408134404 68 243 1.0 5.0 0.00 1.38 0.00 87 1009.3
20200408134304 68 244 2.0 5.0 0.00 1.38 0.00 87 1009.3
20200408134204 68 244 2.0 5.0 0.00 1.38 0.00 87 1009.3
20200408134105 68 244 2.0 5.0 0.00 1.38 0.00 88 1009.3
20200408134004 68 245 2.0 5.0 0.00 1.38 0.00 88 1009.3
20200408133904 68 243 2.0 5.0 0.00 1.38 0.00 88 1009.3
20200408133805 68 241 2.0 5.0 0.00 1.38 0.00 88 1009.3
20200408133704 68 241 2.0 5.0 0.00 1.38 0.00 88 1009.3
20200408133604 68 238 2.0 5.0 0.00 1.38 0.00 88 1009.3
20200408133504 68 235 2.0 5.0 0.00 1.38 0.00 89 1009.3
20200408133405 68 235 2.0 5.0 0.00 1.38 0.00 89 1009.3
20200408133304 67 231 1.0 5.0 0.00 1.38 0.00 89 1009.2
20200408133204 67 223 1.0 5.0 0.00 1.38 0.00 89 1009.2
20200408133104 67 219 1.0 5.0 0.00 1.38 0.00 90 1009.2
20200408133004 67 213 1.0 5.0 0.00 1.38 0.00 90 1009.2
20200408132904 67 204 1.0 4.0 0.00 1.38 0.00 90 1009.2
20200408132804 67 197 0.0 4.0 0.00 1.38 0.00 91 1009.2
20200408132704 66 194 0.0 4.0 0.00 1.38 0.00 91 1009.1
20200408132604 66 176 0.0 2.0 0.00 1.38 0.00 91 1009.1
20200408132505 66 174 0.0 2.0 0.00 1.38 0.00 91 1009.1
20200408132404 66 174 0.0 2.0 0.00 1.38 0.00 92 1009.1
20200408132304 66 174 0.0 2.0 0.00 1.38 0.00 92 1009.1
20200408132204 66 173 0.0 2.0 0.00 1.38 0.00 92 1009.1
20200408132104 66 173 0.0 1.0 0.00 1.38 0.00 92 1009.1
20200408132004 66 173 0.0 1.0 0.00 1.38 0.00 93 1009.1
20200408131904 65 173 0.0 1.0 0.00 1.38 0.00 93 1009.1
20200408131805 65 173 0.0 1.0 0.00 1.38 0.00 93 1009.1
20200408131704 65 173 0.0 1.0 0.00 1.38 0.00 93 1009.1
20200408131604 65 173 0.0 1.0 0.00 1.38 0.00 94 1009.1
20200408131505 65 173 0.0 1.0 0.00 1.38 0.00 94 1009.1
20200408131404 65 173 0.0 1.0 0.00 1.38 0.00 94 1009.1
20200408131304 65 173 0.0 1.0 0.00 1.38 0.00 94 1009.1
20200408131205 65 173 0.0 1.0 0.00 1.38 0.00 95 1009.1
20200408131104 64 173 0.0 1.0 0.00 1.38 0.00 95 1009.1
20200408131004 64 173 0.0 1.0 0.00 1.38 0.00 95 1009.1
20200408130904 64 173 0.0 1.0 0.00 1.38 0.00 95 1009.0
20200408130805 64 173 0.0 1.0 0.00 1.38 0.00 96 1009.0
20200408130704 64 173 0.0 1.0 0.00 1.38 0.00 96 1009.0
20200408130605 64 173 0.0 1.0 0.00 1.38 0.00 96 1009.0
20200408130504 64 0 0.0 0.0 0.00 1.38 0.00 96 1009.0
20200408130405 63 0 0.0 0.0 0.00 1.38 0.00 96 1008.9
20200408130304 63 0 0.0 0.0 0.00 1.38 0.00 96 1008.9
20200408130208 63 0 0.0 0.0 0.00 1.38 0.00 96 1008.9
20200408130106 63 0 0.0 0.0 0.00 1.38 0.00 95 1008.9
20200408130005 63 0 0.0 0.0 0.00 1.38 0.00 95 1008.9
20200408125904 63 0 0.0 0.0 0.00 1.38 0.00 95 1008.9
20200408125805 63 0 0.0 0.0 0.00 1.38 0.00 95 1008.9
20200408125705 63 0 0.0 0.0 0.00 1.38 0.00 96 1008.9
20200408125604 62 0 0.0 0.0 0.00 1.38 0.00 96 1008.9
20200408125504 62 0 0.0 0.0 0.00 1.38 0.00 96 1008.9
20200408125404 62 0 0.0 0.0 0.00 1.38 0.00 96 1008.9
20200408125304 62 0 0.0 0.0 0.00 1.38 0.00 96 1008.9
20200408125204 62 0 0.0 0.0 0.00 1.38 0.00 95 1008.9
20200408125104 62 0 0.0 0.0 0.00 1.38 0.00 96 1008.9
20200408125005 62 0 0.0 0.0 0.00 1.38 0.00 96 1008.9
20200408124904 62 0 0.0 0.0 0.00 1.38 0.00 95 1008.9
20200408124804 62 0 0.0 0.0 0.00 1.38 0.00 95 1008.9
20200408124704 62 0 0.0 0.0 0.00 1.38 0.00 95 1008.9
20200408124604 62 0 0.0 0.0 0.00 1.38 0.00 95 1008.9
20200408124505 62 0 0.0 0.0 0.00 1.38 0.00 95 1008.9
20200408124404 62 0 0.0 0.0 0.00 1.38 0.00 95 1008.9
20200408124305 62 0 0.0 0.0 0.00 1.38 0.00 95 1008.9
20200408124204 62 0 0.0 0.0 0.00 1.38 0.00 95 1008.9
20200408124104 61 0 0.0 0.0 0.00 1.38 0.00 95 1008.9
20200408124004 61 0 0.0 0.0 0.00 1.38 0.00 95 1008.8
20200408123904 61 0 0.0 0.0 0.00 1.38 0.00 95 1008.8
20200408123805 61 0 0.0 0.0 0.00 1.38 0.00 95 1008.8
20200408123704 61 0 0.0 0.0 0.00 1.38 0.00 95 1008.8
20200408123604 61 0 0.0 0.0 0.00 1.38 0.00 95 1008.7
20200408123505 61 0 0.0 0.0 0.00 1.38 0.00 94 1008.7
20200408123404 61 0 0.0 0.0 0.00 1.38 0.00 94 1008.7
20200408123304 61 0 0.0 0.0 0.00 1.38 0.00 94 1008.7
20200408123204 61 0 0.0 0.0 0.00 1.38 0.00 94 1008.6
20200408123104 61 0 0.0 0.0 0.00 1.38 0.00 94 1008.6
20200408123004 61 0 0.0 0.0 0.00 1.38 0.00 94 1008.6
20200408122905 61 0 0.0 0.0 0.00 1.38 0.00 94 1008.6
20200408122804 61 0 0.0 0.0 0.00 1.38 0.00 94 1008.6
20200408122704 61 0 0.0 0.0 0.00 1.38 0.00 94 1008.5
20200408122604 61 0 0.0 0.0 0.00 1.38 0.00 94 1008.5
20200408122504 61 0 0.0 0.0 0.00 1.38 0.00 94 1008.4
20200408122404 61 0 0.0 0.0 0.00 1.38 0.00 94 1008.4
20200408122305 61 0 0.0 0.0 0.00 1.38 0.00 95 1008.4
20200408122204 61 0 0.0 0.0 0.00 1.38 0.00 95 1008.3
20200408122104 61 0 0.0 0.0 0.00 1.38 0.00 95 1008.3
20200408122004 61 0 0.0 0.0 0.00 1.38 0.00 95 1008.2
20200408121905 61 0 0.0 0.0 0.00 1.38 0.00 95 1008.2
20200408121805 61 0 0.0 0.0 0.00 1.38 0.00 95 1008.2
20200408121704 61 0 0.0 0.0 0.00 1.38 0.00 95 1008.2
20200408121604 61 0 0.0 0.0 0.00 1.38 0.00 95 1008.2
20200408121505 61 0 0.0 0.0 0.00 1.38 0.00 95 1008.1
20200408121404 61 0 0.0 0.0 0.00 1.38 0.00 95 1008.1
20200408121304 61 0 0.0 0.0 0.00 1.38 0.00 94 1008.2
20200408121204 61 0 0.0 0.0 0.00 1.38 0.00 94 1008.3
20200408121104 61 0 0.0 0.0 0.00 1.38 0.00 94 1008.2
20200408121004 61 0 0.0 0.0 0.00 1.38 0.00 94 1008.2
20200408120904 61 0 0.0 0.0 0.00 1.38 0.00 94 1008.2
20200408120804 61 0 0.0 0.0 0.00 1.38 0.00 94 1008.1
20200408120704 61 0 0.0 0.0 0.00 1.38 0.00 94 1008.1
20200408120605 61 0 0.0 0.0 0.00 1.38 0.00 94 1008.1
20200408120504 61 0 0.0 0.0 0.00 1.38 0.00 94 1008.1
20200408120404 61 0 0.0 0.0 0.00 1.38 0.00 94 1008.0
20200408120304 61 0 0.0 0.0 0.00 1.38 0.00 94 1008.0
20200408120205 61 0 0.0 0.0 0.00 1.38 0.00 94 1007.9
20200408120106 61 0 0.0 0.0 0.00 1.38 0.00 94 1007.9
20200408120005 61 0 0.0 0.0 0.00 1.38 0.00 94 1007.9
20200408115904 61 0 0.0 0.0 0.00 1.38 0.00 94 1007.9
20200408115804 61 0 0.0 0.0 0.00 1.38 0.00 94 1007.8
20200408115704 61 0 0.0 0.0 0.00 1.38 0.00 94 1007.9
20200408115604 61 0 0.0 0.0 0.00 1.38 0.00 94 1007.9
20200408115504 61 0 0.0 0.0 0.00 1.38 0.00 94 1007.8
20200408115404 61 0 0.0 0.0 0.00 1.38 0.00 94 1007.8
20200408115306 61 0 0.0 0.0 0.00 1.38 0.00 94 1007.8
20200408115204 61 0 0.0 0.0 0.00 1.38 0.00 94 1007.8
20200408115105 61 0 0.0 0.0 0.00 1.38 0.00 94 1007.8
20200408115004 61 0 0.0 0.0 0.00 1.38 0.00 94 1007.8
20200408114904 61 0 0.0 0.0 0.00 1.38 0.00 94 1007.8
20200408114804 61 0 0.0 0.0 0.00 1.38 0.00 94 1007.8
20200408114704 61 0 0.0 0.0 0.00 1.38 0.00 94 1007.8
20200408114605 61 0 0.0 0.0 0.00 1.38 0.00 94 1007.7
20200408114504 61 0 0.0 0.0 0.00 1.38 0.00 94 1007.7
20200408114405 61 0 0.0 0.0 0.00 1.38 0.00 94 1007.7
20200408114305 62 0 0.0 0.0 0.00 1.38 0.00 94 1007.7
20200408114204 62 0 0.0 0.0 0.00 1.38 0.00 94 1007.7
20200408114104 62 0 0.0 0.0 0.00 1.38 0.00 94 1007.7
20200408114004 62 0 0.0 0.0 0.00 1.38 0.00 94 1007.7
20200408113905 62 0 0.0 0.0 0.00 1.38 0.00 93 1007.7
20200408113804 62 0 0.0 0.0 0.00 1.38 0.00 93 1007.6
20200408113704 62 0 0.0 0.0 0.00 1.38 0.00 93 1007.6
20200408113604 62 0 0.0 0.0 0.00 1.38 0.00 93 1007.6
20200408113504 62 0 0.0 0.0 0.00 1.38 0.00 93 1007.6
20200408113404 62 0 0.0 0.0 0.00 1.38 0.00 93 1007.6
20200408113304 62 0 0.0 0.0 0.00 1.38 0.00 93 1007.6
20200408113204 62 0 0.0 0.0 0.00 1.38 0.00 93 1007.6
20200408113104 62 0 0.0 0.0 0.00 1.38 0.00 92 1007.6
20200408113005 62 0 0.0 0.0 0.00 1.38 0.00 92 1007.6
20200408112904 62 0 0.0 0.0 0.00 1.38 0.00 92 1007.6
20200408112804 62 0 0.0 0.0 0.00 1.38 0.00 92 1007.5
20200408112704 62 0 0.0 0.0 0.00 1.38 0.00 92 1007.5
20200408112604 62 0 0.0 0.0 0.00 1.38 0.00 92 1007.5
20200408112504 62 0 0.0 0.0 0.00 1.38 0.00 92 1007.5
20200408112404 62 0 0.0 0.0 0.00 1.38 0.00 92 1007.6
20200408112306 62 0 0.0 0.0 0.00 1.38 0.00 92 1007.6
20200408112204 62 0 0.0 0.0 0.00 1.38 0.00 92 1007.5
20200408112104 62 0 0.0 0.0 0.00 1.38 0.00 92 1007.6
20200408112004 62 0 0.0 0.0 0.00 1.38 0.00 92 1007.6
20200408111904 62 0 0.0 0.0 0.00 1.38 0.00 92 1007.5
20200408111804 62 0 0.0 0.0 0.00 1.38 0.00 92 1007.5
20200408111704 62 0 0.0 0.0 0.00 1.38 0.00 92 1007.6
20200408111604 62 0 0.0 0.0 0.00 1.38 0.00 91 1007.6
20200408111505 62 0 0.0 0.0 0.00 1.38 0.00 91 1007.6
20200408111404 62 0 0.0 0.0 0.00 1.38 0.00 91 1007.6
20200408111305 62 0 0.0 0.0 0.00 1.38 0.00 91 1007.6
20200408111204 62 0 0.0 0.0 0.00 1.38 0.00 91 1007.6
20200408111104 62 0 0.0 0.0 0.00 1.38 0.00 91 1007.6
20200408111004 62 0 0.0 0.0 0.00 1.38 0.00 91 1007.6
20200408110905 62 0 0.0 0.0 0.00 1.38 0.00 91 1007.6
20200408110804 63 0 0.0 0.0 0.00 1.38 0.00 91 1007.5
20200408110704 63 0 0.0 0.0 0.00 1.38 0.00 91 1007.5
20200408110604 63 0 0.0 0.0 0.00 1.38 0.00 91 1007.6
20200408110504 63 0 0.0 0.0 0.00 1.38 0.00 92 1007.5
20200408110404 63 0 0.0 0.0 0.00 1.38 0.00 91 1007.5
20200408110304 63 0 0.0 0.0 0.00 1.38 0.00 92 1007.5
20200408110204 63 0 0.0 0.0 0.00 1.38 0.00 92 1007.4
20200408110104 63 0 0.0 0.0 0.00 1.38 0.00 92 1007.4
20200408105904 63 0 0.0 0.0 0.00 1.38 0.00 92 1007.3
20200408105805 63 0 0.0 0.0 0.00 1.38 0.00 92 1007.3
20200408105705 63 0 0.0 0.0 0.00 1.38 0.00 92 1007.4
20200408105604 63 0 0.0 0.0 0.00 1.38 0.00 92 1007.4
20200408105504 63 0 0.0 0.0 0.00 1.38 0.00 92 1007.4
20200408105404 63 0 0.0 0.0 0.00 1.38 0.00 92 1007.4
20200408105305 63 0 0.0 0.0 0.00 1.38 0.00 92 1007.4
20200408105204 63 0 0.0 0.0 0.00 1.38 0.00 92 1007.4
20200408105104 63 0 0.0 0.0 0.00 1.38 0.00 92 1007.4
20200408105004 63 0 0.0 0.0 0.00 1.38 0.00 92 1007.4
20200408104904 63 0 0.0 0.0 0.00 1.38 0.00 92 1007.4
20200408104804 63 0 0.0 0.0 0.00 1.38 0.00 92 1007.4
20200408104704 63 0 0.0 0.0 0.00 1.38 0.00 92 1007.4
20200408104604 63 0 0.0 0.0 0.00 1.38 0.00 92 1007.4
20200408104505 63 0 0.0 0.0 0.00 1.38 0.00 92 1007.4
20200408104404 63 0 0.0 0.0 0.00 1.38 0.00 92 1007.4
20200408104303 63 0 0.0 0.0 0.00 1.38 0.00 92 1007.4
20200408104204 63 0 0.0 0.0 0.00 1.38 0.00 92 1007.4
20200408104108 63 0 0.0 0.0 0.00 1.38 0.00 92 1007.4
20200408104004 63 0 0.0 0.0 0.00 1.38 0.00 92 1007.4
20200408103904 63 0 0.0 0.0 0.00 1.38 0.00 92 1007.4
20200408103805 63 0 0.0 0.0 0.00 1.38 0.00 92 1007.4
20200408103706 63 0 0.0 0.0 0.00 1.38 0.00 91 1007.4
20200408103604 63 0 0.0 0.0 0.00 1.38 0.00 91 1007.4
20200408103504 63 0 0.0 0.0 0.00 1.38 0.00 91 1007.3
20200408103404 63 0 0.0 0.0 0.00 1.38 0.00 91 1007.3
20200408103304 63 0 0.0 0.0 0.00 1.38 0.00 91 1007.3
20200408103204 63 0 0.0 0.0 0.00 1.38 0.00 91 1007.3
20200408103104 63 0 0.0 0.0 0.00 1.38 0.00 91 1007.2
20200408103005 63 0 0.0 0.0 0.00 1.38 0.00 91 1007.2
20200408102904 63 173 0.0 1.0 0.00 1.38 0.00 91 1007.2
20200408102804 63 173 0.0 1.0 0.00 1.38 0.00 91 1007.2
20200408102704 63 173 0.0 1.0 0.00 1.38 0.00 91 1007.2
20200408102604 63 173 0.0 1.0 0.00 1.38 0.00 91 1007.2
20200408102504 63 173 0.0 1.0 0.00 1.38 0.00 91 1007.2
20200408102404 63 173 0.0 1.0 0.00 1.38 0.00 91 1007.2
20200408102306 63 173 0.0 1.0 0.00 1.38 0.00 91 1007.2
20200408102204 63 173 0.0 1.0 0.00 1.38 0.00 91 1007.1
20200408102104 63 173 0.0 1.0 0.00 1.38 0.00 91 1007.2
20200408102004 63 173 0.0 1.0 0.00 1.38 0.00 91 1007.2
20200408101904 63 0 0.0 0.0 0.00 1.38 0.00 91 1007.2
20200408101804 63 0 0.0 0.0 0.00 1.38 0.00 91 1007.2
20200408101704 63 0 0.0 0.0 0.00 1.38 0.00 91 1007.2
20200408101604 63 0 0.0 0.0 0.00 1.38 0.00 90 1007.1
20200408101504 63 0 0.0 0.0 0.00 1.38 0.00 90 1007.2
20200408101405 63 0 0.0 0.0 0.00 1.38 0.00 90 1007.2
20200408101304 63 0 0.0 0.0 0.00 1.38 0.00 90 1007.2
20200408101204 63 0 0.0 0.0 0.00 1.38 0.00 90 1007.2
20200408101104 63 0 0.0 0.0 0.00 1.38 0.00 90 1007.2
20200408101005 64 0 0.0 0.0 0.00 1.38 0.00 90 1007.2
20200408100905 64 0 0.0 0.0 0.00 1.38 0.00 90 1007.2
20200408100804 64 0 0.0 0.0 0.00 1.38 0.00 90 1007.2
20200408100704 64 0 0.0 0.0 0.00 1.38 0.00 90 1007.2
20200408100604 64 0 0.0 0.0 0.00 1.38 0.00 90 1007.2
20200408100504 64 0 0.0 0.0 0.00 1.38 0.00 90 1007.2
20200408100404 64 0 0.0 0.0 0.00 1.38 0.00 89 1007.3
20200408100304 64 0 0.0 0.0 0.00 1.38 0.00 89 1007.3
20200408100207 64 0 0.0 0.0 0.00 1.38 0.00 89 1007.2
20200408100104 64 0 0.0 0.0 0.00 1.38 0.00 89 1007.3
20200408100005 64 0 0.0 0.0 0.00 1.38 0.00 89 1007.3
20200408095904 64 0 0.0 0.0 0.00 1.38 0.00 89 1007.2
20200408095804 64 0 0.0 0.0 0.00 1.38 0.00 89 1007.2
20200408095704 64 0 0.0 0.0 0.00 1.38 0.00 89 1007.2
20200408095604 64 0 0.0 0.0 0.00 1.38 0.00 89 1007.2
20200408095504 64 0 0.0 0.0 0.00 1.38 0.00 88 1007.2
20200408095405 64 0 0.0 0.0 0.00 1.38 0.00 88 1007.2
20200408095305 64 0 0.0 0.0 0.00 1.38 0.00 88 1007.2
20200408095205 64 0 0.0 0.0 0.00 1.38 0.00 88 1007.2
20200408095104 64 0 0.0 0.0 0.00 1.38 0.00 88 1007.2
20200408095005 64 0 0.0 0.0 0.00 1.38 0.00 88 1007.2
20200408094904 64 0 0.0 0.0 0.00 1.38 0.00 88 1007.2
20200408094804 64 0 0.0 0.0 0.00 1.38 0.00 87 1007.3
20200408094704 65 0 0.0 0.0 0.00 1.38 0.00 87 1007.3
20200408094604 65 0 0.0 0.0 0.00 1.38 0.00 87 1007.3
20200408094504 65 0 0.0 0.0 0.00 1.38 0.00 87 1007.4
20200408094404 65 0 0.0 0.0 0.00 1.38 0.00 87 1007.3
20200408094304 65 0 0.0 0.0 0.00 1.38 0.00 87 1007.3
20200408094204 65 0 0.0 0.0 0.00 1.38 0.00 87 1007.3
20200408094104 65 0 0.0 0.0 0.00 1.38 0.00 87 1007.3
20200408094005 65 0 0.0 0.0 0.00 1.38 0.00 87 1007.3
20200408093904 65 0 0.0 0.0 0.00 1.38 0.00 87 1007.3
20200408093804 65 0 0.0 0.0 0.00 1.38 0.00 87 1007.3
20200408093705 65 0 0.0 0.0 0.00 1.38 0.00 87 1007.3
20200408093604 65 0 0.0 0.0 0.00 1.38 0.00 87 1007.3
20200408093506 65 0 0.0 0.0 0.00 1.38 0.00 87 1007.3
20200408093404 65 0 0.0 0.0 0.00 1.38 0.00 87 1007.3
20200408093304 65 0 0.0 0.0 0.00 1.38 0.00 87 1007.3
20200408093208 66 0 0.0 0.0 0.00 1.38 0.00 87 1007.3
20200408093105 66 0 0.0 0.0 0.00 1.38 0.00 87 1007.3
20200408093006 66 0 0.0 0.0 0.00 1.38 0.00 87 1007.3
20200408092904 66 0 0.0 0.0 0.00 1.38 0.00 87 1007.3
20200408092805 66 0 0.0 0.0 0.00 1.38 0.00 87 1007.3
20200408092704 66 0 0.0 0.0 0.00 1.38 0.00 87 1007.3
20200408092604 66 0 0.0 0.0 0.00 1.38 0.00 86 1007.3
20200408092504 66 0 0.0 0.0 0.00 1.38 0.00 86 1007.3
20200408092404 66 0 0.0 0.0 0.00 1.38 0.00 86 1007.3
20200408092306 66 0 0.0 0.0 0.00 1.38 0.00 86 1007.3
20200408092204 66 0 0.0 0.0 0.00 1.38 0.00 86 1007.3
20200408092106 66 0 0.0 0.0 0.00 1.38 0.00 86 1007.4
20200408091904 66 0 0.0 0.0 0.00 1.38 0.00 86 1007.3
20200408091404 66 0 0.0 0.0 0.00 1.38 0.00 85 1007.3
20200408091305 66 0 0.0 0.0 0.00 1.38 0.00 85 1007.3
20200408091206 67 0 0.0 0.0 0.00 1.38 0.00 85 1007.3
20200408091104 67 0 0.0 0.0 0.00 1.38 0.00 85 1007.3
20200408091006 67 0 0.0 0.0 0.00 1.38 0.00 85 1007.4
20200408090904 67 0 0.0 0.0 0.00 1.38 0.00 84 1007.3
20200408090804 67 0 0.0 0.0 0.00 1.38 0.00 84 1007.3
20200408090704 67 0 0.0 0.0 0.00 1.38 0.00 85 1007.3
20200408090605 67 0 0.0 0.0 0.00 1.38 0.00 85 1007.3
20200408090504 67 0 0.0 0.0 0.00 1.38 0.00 84 1007.3
20200408090405 67 0 0.0 0.0 0.00 1.38 0.00 84 1007.3
20200408090305 67 0 0.0 0.0 0.00 1.38 0.00 84 1007.3
20200408090204 67 0 0.0 0.0 0.00 1.38 0.00 84 1007.2
20200408090104 67 0 0.0 0.0 0.00 1.38 0.00 84 1007.2
20200408090005 67 0 0.0 0.0 0.00 1.38 0.00 84 1007.2
20200408085904 67 0 0.0 0.0 0.00 1.38 0.00 84 1007.2
20200408085805 67 173 0.0 1.0 0.00 1.38 0.00 84 1007.2
20200408085704 67 173 0.0 1.0 0.00 1.38 0.00 84 1007.2
20200408085604 67 173 0.0 1.0 0.00 1.38 0.00 84 1007.2
20200408085504 67 173 0.0 1.0 0.00 1.38 0.00 84 1007.2
20200408085404 67 173 0.0 1.0 0.00 1.38 0.00 83 1007.2
20200408085306 67 173 0.0 1.0 0.00 1.38 0.00 84 1007.2
20200408085204 67 173 0.0 1.0 0.00 1.38 0.00 83 1007.2
20200408085104 68 173 0.0 1.0 0.00 1.38 0.00 83 1007.1
20200408085004 68 173 0.0 1.0 0.00 1.38 0.00 83 1007.1
20200408084904 68 173 0.0 1.0 0.00 1.38 0.00 83 1007.1
20200408084804 68 173 0.0 1.0 0.00 1.38 0.00 83 1007.1
20200408084704 68 173 0.0 1.0 0.00 1.38 0.00 83 1007.1
20200408084604 68 173 0.0 1.0 0.00 1.38 0.00 83 1007.1
20200408084505 68 173 0.0 1.0 0.00 1.38 0.00 83 1007.1
20200408084405 68 173 0.0 1.0 0.00 1.38 0.00 83 1007.1
20200408084304 68 173 0.0 1.0 0.00 1.38 0.00 83 1007.1
20200408084204 68 173 0.0 1.0 0.00 1.38 0.00 83 1007.1
20200408084104 68 173 0.0 1.0 0.00 1.38 0.00 83 1007.1
20200408084004 68 173 0.0 1.0 0.00 1.38 0.00 83 1007.1
20200408083904 68 173 0.0 1.0 0.00 1.38 0.00 83 1007.1
20200408083804 68 0 0.0 0.0 0.00 1.38 0.00 83 1007.1
20200408083704 68 0 0.0 0.0 0.00 1.38 0.00 83 1007.1
20200408083605 68 0 0.0 0.0 0.00 1.38 0.00 83 1007.1
20200408083504 68 0 0.0 0.0 0.00 1.38 0.00 83 1007.1
20200408083404 68 172 0.0 1.0 0.00 1.38 0.00 83 1007.1
20200408083304 68 172 0.0 1.0 0.00 1.38 0.00 83 1007.1
20200408083204 68 172 0.0 1.0 0.00 1.38 0.00 83 1007.1
20200408083105 68 172 0.0 1.0 0.00 1.38 0.00 83 1007.1
20200408083006 68 172 0.0 1.0 0.00 1.38 0.00 83 1007.0
20200408082904 68 172 0.0 1.0 0.00 1.38 0.00 83 1007.0
20200408082804 68 172 0.0 1.0 0.00 1.38 0.00 83 1007.0
20200408082704 68 171 0.0 3.0 0.00 1.38 0.00 83 1007.0
20200408082604 68 174 0.0 3.0 0.00 1.38 0.00 83 1007.0
20200408082505 68 174 0.0 3.0 0.00 1.38 0.00 82 1007.0
20200408082404 68 175 0.0 3.0 0.00 1.38 0.00 82 1007.0
20200408082306 68 175 0.0 3.0 0.00 1.38 0.00 82 1007.0
20200408082204 68 175 0.0 3.0 0.00 1.38 0.00 82 1007.0
20200408082104 68 175 0.0 3.0 0.00 1.38 0.00 82 1007.1
20200408082004 68 177 0.0 3.0 0.00 1.38 0.00 82 1007.1
20200408081904 68 177 0.0 3.0 0.00 1.38 0.00 82 1007.1
20200408081804 68 178 0.0 3.0 0.00 1.38 0.00 82 1007.0
20200408081705 68 182 0.0 3.0 0.00 1.38 0.00 82 1007.0
20200408081505 68 205 0.0 1.0 0.00 1.38 0.00 82 1007.0
20200408081404 68 205 0.0 1.0 0.00 1.38 0.00 82 1007.0
20200408081304 68 206 0.0 1.0 0.00 1.38 0.00 82 1007.0
20200408081204 69 206 0.0 1.0 0.00 1.38 0.00 81 1007.1
20200408081104 69 206 0.0 1.0 0.00 1.38 0.00 81 1007.1
20200408081004 69 205 0.0 1.0 0.00 1.38 0.00 81 1007.0
20200408080904 69 205 0.0 1.0 0.00 1.38 0.00 81 1007.1
20200408080804 69 206 0.0 1.0 0.00 1.38 0.00 81 1007.1
20200408080704 69 205 0.0 2.0 0.00 1.38 0.00 81 1007.1
20200408080605 69 205 0.0 2.0 0.00 1.38 0.00 81 1007.1
20200408080504 69 205 0.0 2.0 0.00 1.38 0.00 81 1007.1
20200408080404 69 205 0.0 2.0 0.00 1.38 0.00 81 1007.1
20200408080304 69 205 0.0 2.0 0.00 1.38 0.00 81 1007.1
20200408080204 69 205 0.0 2.0 0.00 1.38 0.00 81 1007.1
20200408080105 69 205 0.0 2.0 0.00 1.38 0.00 81 1007.1
20200408080005 69 205 0.0 2.0 0.00 1.38 0.00 81 1007.0
20200408075904 69 205 0.0 2.0 0.00 1.38 0.00 81 1007.1
20200408075804 69 205 0.0 2.0 0.00 1.38 0.00 81 1007.0
20200408075705 69 205 0.0 2.0 0.00 1.38 0.00 80 1007.0
20200408075604 69 205 0.0 2.0 0.00 1.38 0.00 80 1007.1
20200408075504 69 205 0.0 2.0 0.00 1.38 0.00 80 1007.1
20200408075404 69 205 0.0 2.0 0.00 1.38 0.00 80 1007.1
20200408075306 69 205 0.0 2.0 0.00 1.38 0.00 80 1007.1
20200408075204 69 205 0.0 2.0 0.00 1.38 0.00 80 1007.1
20200408075004 69 205 0.0 1.0 0.00 1.38 0.00 80 1007.1
20200408074904 69 205 0.0 1.0 0.00 1.38 0.00 80 1007.1
20200408074804 69 205 0.0 1.0 0.00 1.38 0.00 80 1007.1
20200408074704 69 205 0.0 1.0 0.00 1.38 0.00 80 1007.1
20200408074604 69 206 0.0 1.0 0.00 1.38 0.00 80 1007.1
20200408074505 69 206 0.0 1.0 0.00 1.38 0.00 80 1007.2
20200408074404 69 206 0.0 1.0 0.00 1.38 0.00 80 1007.1
20200408074304 69 211 0.0 2.0 0.00 1.38 0.00 80 1007.1
20200408074204 70 215 0.0 2.0 0.00 1.38 0.00 80 1007.1
20200408074104 70 215 0.0 2.0 0.00 1.38 0.00 80 1007.1
20200408074006 70 217 0.0 2.0 0.00 1.38 0.00 80 1007.2
20200408073904 70 219 0.0 2.0 0.00 1.38 0.00 80 1007.2
20200408073804 70 219 0.0 2.0 0.00 1.38 0.00 80 1007.1
20200408073705 70 219 0.0 2.0 0.00 1.38 0.00 80 1007.1
20200408073604 70 222 0.0 2.0 0.00 1.38 0.00 80 1007.1
20200408073504 70 222 0.0 2.0 0.00 1.38 0.00 79 1007.1
20200408073404 70 222 0.0 2.0 0.00 1.38 0.00 79 1007.1
20200408073304 70 233 0.0 1.0 0.00 1.38 0.00 79 1007.2
20200408073205 70 233 0.0 1.0 0.00 1.38 0.00 79 1007.2
20200408073104 70 233 0.0 1.0 0.00 1.38 0.00 79 1007.1
20200408073004 70 233 0.0 1.0 0.00 1.38 0.00 79 1007.1
20200408072905 70 233 0.0 1.0 0.00 1.38 0.00 79 1007.2
20200408072804 70 233 0.0 1.0 0.00 1.38 0.00 79 1007.2
20200408072704 70 233 0.0 1.0 0.00 1.38 0.00 79 1007.2
20200408072604 70 0 0.0 0.0 0.00 1.38 0.00 79 1007.2
20200408072504 70 0 0.0 0.0 0.00 1.38 0.00 79 1007.2
20200408072405 70 0 0.0 0.0 0.00 1.38 0.00 79 1007.2
20200408072306 70 0 0.0 0.0 0.00 1.38 0.00 79 1007.2
20200408072204 70 233 0.0 2.0 0.00 1.38 0.00 79 1007.2
20200408072104 70 233 0.0 2.0 0.00 1.38 0.00 79 1007.2
20200408072004 70 233 0.0 2.0 0.00 1.38 0.00 79 1007.2
20200408071904 70 233 0.0 2.0 0.00 1.38 0.00 79 1007.2
20200408071804 70 233 0.0 2.0 0.00 1.38 0.00 79 1007.2
20200408071704 70 233 0.0 2.0 0.00 1.38 0.00 79 1007.2
20200408071604 70 233 0.0 2.0 0.00 1.38 0.00 79 1007.2
20200408071507 70 233 0.0 2.0 0.00 1.38 0.00 79 1007.2
20200408071405 70 233 0.0 2.0 0.00 1.38 0.00 79 1007.2
20200408071304 70 233 0.0 2.0 0.00 1.38 0.00 79 1007.2
20200408071207 70 233 0.0 1.0 0.00 1.38 0.00 79 1007.2
20200408071104 70 233 0.0 1.0 0.00 1.38 0.00 79 1007.2
20200408071004 70 233 0.0 1.0 0.00 1.38 0.00 79 1007.3
20200408070904 70 233 0.0 1.0 0.00 1.38 0.00 79 1007.3
20200408070804 70 233 0.0 1.0 0.00 1.38 0.00 79 1007.3
20200408070705 70 233 0.0 1.0 0.00 1.38 0.00 79 1007.3
20200408070605 70 233 0.0 1.0 0.00 1.38 0.00 79 1007.4
20200408070504 70 233 0.0 1.0 0.00 1.38 0.00 79 1007.4
20200408070404 70 233 0.0 1.0 0.00 1.38 0.00 79 1007.4
20200408070305 70 233 0.0 1.0 0.00 1.38 0.00 79 1007.4
20200408070204 70 233 0.0 1.0 0.00 1.38 0.00 79 1007.4
20200408070104 70 233 0.0 1.0 0.00 1.38 0.00 79 1007.4
20200408070005 70 233 0.0 1.0 0.00 1.38 0.00 78 1007.4
20200408065904 70 233 0.0 1.0 0.00 1.38 0.00 78 1007.4
20200408065804 70 233 0.0 1.0 0.00 1.38 0.00 78 1007.4
20200408065704 70 233 0.0 1.0 0.00 1.38 0.00 78 1007.4
20200408065604 70 233 0.0 1.0 0.00 1.38 0.00 78 1007.4
20200408065504 70 233 0.0 1.0 0.00 1.38 0.00 78 1007.4
20200408065404 70 233 0.0 1.0 0.00 1.38 0.00 78 1007.4
20200408065304 70 233 0.0 1.0 0.00 1.38 0.00 78 1007.4
20200408065204 71 0 0.0 0.0 0.00 1.38 0.00 78 1007.4
20200408065104 71 0 0.0 0.0 0.00 1.38 0.00 77 1007.4
20200408065004 71 0 0.0 0.0 0.00 1.38 0.00 77 1007.4
20200408064904 71 233 0.0 1.0 0.00 1.38 0.00 77 1007.4
20200408064807 71 233 0.0 1.0 0.00 1.38 0.00 77 1007.4
20200408064732 71 233 0.0 1.0 0.00 1.38 0.00 77 1007.4
20200408064605 71 233 0.0 1.0 0.00 1.38 0.00 77 1007.4
20200408064504 71 233 0.0 1.0 0.00 1.38 0.00 77 1007.4
20200408064404 71 233 0.0 1.0 0.00 1.38 0.00 77 1007.4
20200408064304 71 233 0.0 1.0 0.00 1.38 0.00 77 1007.4
20200408064204 71 233 0.0 1.0 0.00 1.38 0.00 77 1007.4
20200408064104 71 233 0.0 1.0 0.00 1.38 0.00 77 1007.4
20200408064004 71 233 0.0 1.0 0.00 1.38 0.00 77 1007.4
20200408063905 71 233 0.0 1.0 0.00 1.38 0.00 77 1007.4
20200408063804 71 233 0.0 1.0 0.00 1.38 0.00 77 1007.4
20200408063704 71 233 0.0 1.0 0.00 1.38 0.00 76 1007.4
20200408063604 71 233 0.0 1.0 0.00 1.38 0.00 76 1007.4
20200408063505 71 233 0.0 1.0 0.00 1.38 0.00 76 1007.4
20200408063404 71 233 0.0 1.0 0.00 1.38 0.00 76 1007.5
20200408063304 71 233 0.0 1.0 0.00 1.38 0.00 76 1007.5
20200408063204 71 233 0.0 1.0 0.00 1.38 0.00 76 1007.6
20200408063104 72 233 0.0 3.0 0.00 1.38 0.00 76 1007.6
20200408063005 72 233 0.0 3.0 0.00 1.38 0.00 76 1007.6
20200408062904 72 233 0.0 3.0 0.00 1.38 0.00 76 1007.6
20200408062805 72 233 0.0 3.0 0.00 1.38 0.00 76 1007.6
20200408062704 72 233 0.0 3.0 0.00 1.38 0.00 76 1007.6
20200408062604 72 233 0.0 3.0 0.00 1.38 0.00 76 1007.6
20200408062505 72 233 0.0 3.0 0.00 1.38 0.00 76 1007.5
20200408062405 72 233 0.0 3.0 0.00 1.38 0.00 76 1007.6
20200408062304 72 233 0.0 3.0 0.00 1.38 0.00 76 1007.6
20200408062205 72 233 0.0 3.0 0.00 1.38 0.00 75 1007.6
20200408062104 72 233 0.0 2.0 0.00 1.38 0.00 75 1007.5
20200408062004 72 233 0.0 2.0 0.00 1.38 0.00 75 1007.5
20200408061905 72 231 0.0 2.0 0.00 1.38 0.00 75 1007.5
20200408061804 72 226 0.0 2.0 0.00 1.38 0.00 75 1007.5
20200408061704 72 225 0.0 2.0 0.00 1.38 0.00 75 1007.5
20200408061604 72 225 0.0 2.0 0.00 1.38 0.00 75 1007.5
20200408061505 72 222 0.0 2.0 0.00 1.38 0.00 75 1007.6
20200408061404 72 221 0.0 2.0 0.00 1.38 0.00 75 1007.6
20200408061305 72 221 0.0 2.0 0.00 1.38 0.00 75 1007.6
20200408061205 72 217 0.0 2.0 0.00 1.38 0.00 75 1007.6
20200408061104 72 217 0.0 2.0 0.00 1.38 0.00 75 1007.6
20200408061005 72 217 0.0 2.0 0.00 1.38 0.00 75 1007.7
20200408060904 72 207 0.0 1.0 0.00 1.38 0.00 75 1007.7
20200408060804 72 206 0.0 1.0 0.00 1.38 0.00 75 1007.7
20200408060704 72 207 0.0 1.0 0.00 1.38 0.00 75 1007.7
20200408060604 72 207 0.0 1.0 0.00 1.38 0.00 75 1007.7
20200408060504 72 182 0.0 2.0 0.00 1.38 0.00 75 1007.7
20200408060404 72 182 0.0 2.0 0.00 1.38 0.00 75 1007.7
20200408060304 72 183 0.0 2.0 0.00 1.38 0.00 75 1007.7
20200408060205 72 189 0.0 3.0 0.00 1.38 0.00 75 1007.7
20200408060104 72 189 0.0 3.0 0.00 1.38 0.00 75 1007.7
20200408060005 72 189 0.0 3.0 0.00 1.38 0.00 75 1007.7
20200408055904 72 188 0.0 3.0 0.00 1.38 0.00 75 1007.7
20200408055804 72 188 0.0 3.0 0.00 1.38 0.00 75 1007.7
20200408055704 72 187 0.0 3.0 0.00 1.38 0.00 75 1007.7
20200408055604 72 187 0.0 3.0 0.00 1.38 0.00 75 1007.7
20200408055504 72 198 0.0 3.0 0.00 1.38 0.00 75 1007.7
20200408055404 72 202 0.0 3.0 0.00 1.38 0.00 75 1007.7
20200408055304 72 223 0.0 3.0 0.00 1.38 0.00 75 1007.7
20200408055205 72 229 0.0 1.0 0.00 1.38 0.00 74 1007.7
20200408055104 72 229 0.0 1.0 0.00 1.38 0.00 74 1007.7
20200408055004 72 229 0.0 2.0 0.00 1.38 0.00 74 1007.7
20200408054904 72 229 0.0 2.0 0.00 1.38 0.00 74 1007.7
20200408054804 72 229 0.0 2.0 0.00 1.38 0.00 74 1007.8
20200408054705 72 229 0.0 2.0 0.00 1.38 0.00 74 1007.8
20200408054604 72 229 0.0 2.0 0.00 1.38 0.00 74 1007.8
20200408054505 72 229 0.0 2.0 0.00 1.38 0.00 74 1007.8
20200408054404 72 229 0.0 2.0 0.00 1.38 0.00 74 1007.8
20200408054304 72 229 0.0 2.0 0.00 1.38 0.00 74 1007.8
20200408054204 72 228 0.0 2.0 0.00 1.38 0.00 74 1007.8
20200408054104 72 228 0.0 2.0 0.00 1.38 0.00 74 1007.8
20200408054006 72 229 0.0 2.0 0.00 1.38 0.00 74 1007.8
20200408053904 72 229 0.0 2.0 0.00 1.38 0.00 74 1007.8
20200408053804 72 229 0.0 2.0 0.00 1.38 0.00 74 1007.8
20200408053704 72 229 0.0 3.0 0.00 1.38 0.00 74 1007.8
20200408053605 73 228 0.0 3.0 0.00 1.38 0.00 74 1007.8
20200408053505 73 228 0.0 3.0 0.00 1.38 0.00 74 1007.8
20200408053404 73 228 0.0 3.0 0.00 1.38 0.00 74 1007.8
20200408053304 73 228 0.0 3.0 0.00 1.38 0.00 74 1007.8
20200408053204 73 228 0.0 3.0 0.00 1.38 0.00 74 1007.8
20200408053105 73 228 0.0 3.0 0.00 1.38 0.00 74 1007.8
20200408053011 73 228 0.0 3.0 0.00 1.38 0.00 74 1007.8
20200408052904 73 228 0.0 3.0 0.00 1.38 0.00 74 1007.8
20200408052804 73 228 0.0 3.0 0.00 1.38 0.00 74 1007.8
20200408052704 73 227 0.0 3.0 0.00 1.38 0.00 74 1007.8
20200408052504 73 227 0.0 3.0 0.00 1.38 0.00 74 1007.8
20200408052404 73 227 0.0 3.0 0.00 1.38 0.00 74 1007.8
20200408052304 73 227 0.0 3.0 0.00 1.38 0.00 73 1007.7
20200408052204 73 227 0.0 1.0 0.00 1.38 0.00 73 1007.7
20200408052104 73 227 0.0 1.0 0.00 1.38 0.00 73 1007.7
20200408052004 73 227 0.0 3.0 0.00 1.38 0.00 73 1007.7
20200408051905 73 227 0.0 3.0 0.00 1.38 0.00 73 1007.7
20200408051804 73 227 0.0 3.0 0.00 1.38 0.00 73 1007.7
20200408051704 73 227 0.0 3.0 0.00 1.38 0.00 73 1007.7
20200408051607 73 227 0.0 3.0 0.00 1.38 0.00 73 1007.7
20200408051505 73 227 0.0 3.0 0.00 1.38 0.00 73 1007.6
20200408051404 73 227 0.0 3.0 0.00 1.38 0.00 73 1007.6
20200408051305 73 227 0.0 3.0 0.00 1.38 0.00 73 1007.6
20200408051204 73 227 0.0 3.0 0.00 1.38 0.00 73 1007.6
20200408051104 73 227 0.0 3.0 0.00 1.38 0.00 72 1007.6
20200408051005 73 225 0.0 1.0 0.00 1.38 0.00 72 1007.6
20200408050904 73 225 0.0 1.0 0.00 1.38 0.00 72 1007.5
20200408050804 73 225 0.0 1.0 0.00 1.38 0.00 72 1007.5
20200408050704 73 225 0.0 1.0 0.00 1.38 0.00 72 1007.5
20200408050603 73 225 0.0 1.0 0.00 1.38 0.00 72 1007.5
20200408050504 73 225 0.0 1.0 0.00 1.38 0.00 72 1007.5
20200408050404 73 225 0.0 1.0 0.00 1.38 0.00 72 1007.5
20200408050304 73 225 0.0 1.0 0.00 1.38 0.00 72 1007.5
20200408050204 73 225 0.0 1.0 0.00 1.38 0.00 72 1007.4
20200408050104 73 225 0.0 1.0 0.00 1.38 0.00 72 1007.4
20200408050005 74 225 0.0 1.0 0.00 1.38 0.00 72 1007.4
20200408045904 74 225 0.0 1.0 0.00 1.38 1.38 71 1007.4
20200408045805 74 225 0.0 1.0 0.00 1.38 1.38 71 1007.4
20200408045704 74 225 0.0 1.0 0.00 1.38 1.38 71 1007.4
20200408045604 74 225 0.0 1.0 0.00 1.38 1.38 71 1007.4
20200408045504 74 225 0.0 1.0 0.00 1.38 1.38 71 1007.5
20200408045404 74 225 0.0 1.0 0.00 1.38 1.38 71 1007.6
20200408045304 74 225 0.0 1.0 0.00 1.38 1.38 70 1007.6
20200408045204 74 225 0.0 1.0 0.00 1.38 1.38 71 1007.6
20200408045104 74 225 0.0 1.0 0.00 1.38 1.38 70 1007.5
20200408045004 74 225 0.0 1.0 0.00 1.38 1.38 70 1007.5
20200408044904 74 225 0.0 1.0 0.00 1.38 1.38 70 1007.6
20200408044804 74 225 0.0 1.0 0.00 1.38 1.38 70 1007.6
20200408044704 74 225 0.0 2.0 0.00 1.38 1.38 70 1007.6
20200408044604 74 224 0.0 2.0 0.00 1.38 1.38 70 1007.7
20200408044505 74 224 0.0 2.0 0.00 1.38 1.38 70 1007.7
20200408044404 74 224 0.0 2.0 0.00 1.38 1.38 70 1007.7
20200408044304 74 224 0.0 2.0 0.00 1.38 1.38 70 1007.6
20200408044204 74 223 0.0 2.0 0.00 1.38 1.38 70 1007.6
20200408044104 74 222 0.0 2.0 0.00 1.38 1.38 70 1007.6
20200408044004 74 222 0.0 2.0 0.00 1.38 1.38 70 1007.6
20200408043904 75 219 0.0 2.0 0.00 1.38 1.38 69 1007.5
20200408043805 75 202 0.0 3.0 0.00 1.38 1.38 69 1007.5
20200408043704 75 194 0.0 4.0 0.00 1.38 1.38 69 1007.4
20200408043604 75 183 0.0 4.0 0.00 1.38 1.38 69 1007.4
20200408043505 75 189 0.0 4.0 0.00 1.38 1.38 69 1007.4
20200408043404 75 189 0.0 4.0 0.00 1.38 1.38 69 1007.4
20200408043304 75 189 0.0 4.0 0.00 1.38 1.38 69 1007.4
20200408043204 75 192 0.0 4.0 0.00 1.38 1.38 69 1007.3
20200408043104 75 192 0.0 4.0 0.00 1.38 1.38 69 1007.3
20200408043005 75 195 0.0 4.0 0.00 1.38 1.38 69 1007.3
20200408042904 75 195 0.0 4.0 0.00 1.38 1.38 69 1007.3
20200408042804 75 216 0.0 4.0 0.00 1.38 1.38 69 1007.3
20200408042705 75 220 0.0 3.0 0.00 1.38 1.38 69 1007.3
20200408042604 75 220 0.0 3.0 0.00 1.38 1.38 69 1007.3
20200408042504 75 218 0.0 3.0 0.00 1.38 1.38 69 1007.2
20200408042404 75 218 0.0 3.0 0.00 1.38 1.38 69 1007.2
20200408042305 75 215 0.0 3.0 0.00 1.38 1.38 68 1007.2
20200408042204 75 214 0.0 3.0 0.00 1.38 1.38 68 1007.2
20200408042104 75 210 0.0 3.0 0.00 1.38 1.38 68 1007.2
20200408042004 75 202 0.0 4.0 0.00 1.38 1.38 68 1007.2
20200408041904 75 209 0.0 4.0 0.00 1.38 1.38 69 1007.2
20200408041805 75 206 0.0 4.0 0.00 1.38 1.38 68 1007.1
20200408041705 75 210 0.0 4.0 0.00 1.38 1.38 68 1007.1
20200408041604 75 210 1.0 4.0 0.00 1.38 1.38 68 1007.1
20200408041505 75 211 1.0 4.0 0.00 1.38 1.38 68 1007.1
20200408041404 75 211 1.0 5.0 0.00 1.38 1.38 68 1007.1
20200408041304 75 212 1.0 5.0 0.00 1.38 1.38 68 1007.2
20200408041205 75 212 1.0 5.0 0.00 1.38 1.38 68 1007.1
20200408041104 75 213 1.0 5.0 0.00 1.38 1.38 68 1007.1
20200408041006 75 218 0.0 5.0 0.00 1.38 1.38 68 1007.2
20200408040904 75 214 0.0 5.0 0.00 1.38 1.38 68 1007.2
20200408040804 75 214 0.0 5.0 0.00 1.38 1.38 68 1007.2
20200408040705 75 213 0.0 5.0 0.00 1.38 1.38 68 1007.2
20200408040604 75 214 0.0 5.0 0.00 1.38 1.38 68 1007.2
20200408040504 75 211 0.0 5.0 0.00 1.38 1.38 68 1007.2
20200408040404 75 212 0.0 2.0 0.00 1.38 1.38 68 1007.1
20200408040304 75 210 0.0 2.0 0.00 1.38 1.38 67 1007.2
20200408040205 75 212 0.0 1.0 0.00 1.38 1.38 67 1007.2
20200408040104 75 213 0.0 1.0 0.00 1.38 1.38 67 1007.2
20200408040004 76 213 0.0 1.0 0.00 1.38 1.38 67 1007.2
20200408035905 76 217 0.0 2.0 0.00 1.38 1.38 67 1007.2
20200408035804 76 218 0.0 2.0 0.00 1.38 1.38 67 1007.2
20200408035704 76 221 0.0 2.0 0.00 1.38 1.38 67 1007.2
20200408035604 76 222 0.0 2.0 0.00 1.38 1.38 67 1007.2
20200408035505 76 223 0.0 2.0 0.00 1.38 1.38 67 1007.2
20200408035404 76 223 0.0 2.0 0.00 1.38 1.38 67 1007.2
20200408035304 76 223 0.0 2.0 0.00 1.38 1.38 67 1007.2
20200408035204 76 223 0.0 2.0 0.00 1.38 1.38 66 1007.2
20200408035105 76 225 1.0 5.0 0.00 1.38 1.38 66 1007.2
20200408035004 76 225 1.0 5.0 0.00 1.38 1.38 66 1007.2
20200408034904 76 225 1.0 5.0 0.00 1.38 1.38 66 1007.3
20200408034804 76 222 1.0 5.0 0.00 1.38 1.38 66 1007.3
20200408034705 76 215 1.0 5.0 0.00 1.38 1.38 66 1007.3
20200408034604 76 215 1.0 5.0 0.00 1.38 1.38 66 1007.3
20200408034505 76 216 1.0 5.0 0.00 1.38 1.38 66 1007.3
20200408034405 76 216 1.0 5.0 0.00 1.38 1.38 66 1007.3
20200408034304 76 217 1.0 5.0 0.00 1.38 1.38 66 1007.3
20200408034204 76 216 1.0 5.0 0.00 1.38 1.38 66 1007.3
20200408034105 76 211 1.0 4.0 0.00 1.38 1.38 66 1007.3
20200408034005 76 210 1.0 4.0 0.00 1.38 1.38 66 1007.3
20200408033904 76 210 1.0 4.0 0.00 1.38 1.38 66 1007.4
20200408033804 76 212 1.0 4.0 0.00 1.38 1.38 66 1007.3
20200408033704 76 216 1.0 4.0 0.00 1.38 1.38 66 1007.4
20200408033604 76 218 1.0 6.0 0.00 1.38 1.38 66 1007.4
20200408033504 76 218 1.0 6.0 0.00 1.38 1.38 66 1007.3
20200408033405 76 220 1.0 6.0 0.00 1.38 1.38 66 1007.3
20200408033304 76 217 1.0 6.0 0.00 1.38 1.38 66 1007.3
20200408033204 76 217 1.0 6.0 0.00 1.38 1.38 66 1007.3
20200408033104 76 219 1.0 6.0 0.00 1.38 1.38 66 1007.3
20200408033005 76 220 1.0 6.0 0.00 1.38 1.38 66 1007.3
20200408032905 76 220 1.0 6.0 0.00 1.38 1.38 66 1007.3
20200408032804 76 220 1.0 6.0 0.00 1.38 1.38 66 1007.3
20200408032704 76 224 1.0 6.0 0.00 1.38 1.38 66 1007.3
20200408032604 76 224 1.0 7.0 0.00 1.38 1.38 66 1007.2
20200408032504 76 223 1.0 7.0 0.00 1.38 1.38 66 1007.2
20200408032405 76 221 1.0 7.0 0.00 1.38 1.38 65 1007.2
20200408032304 76 224 1.0 7.0 0.00 1.38 1.38 65 1007.3
20200408032204 76 224 1.0 7.0 0.00 1.38 1.38 65 1007.2
20200408032104 76 227 1.0 7.0 0.00 1.38 1.38 65 1007.2
20200408032004 76 228 1.0 7.0 0.00 1.38 1.38 65 1007.2
20200408031904 76 229 1.0 7.0 0.00 1.38 1.38 65 1007.2
20200408031804 76 228 1.0 7.0 0.00 1.38 1.38 65 1007.2
20200408031704 76 221 1.0 7.0 0.00 1.38 1.38 65 1007.2
20200408031605 76 218 1.0 6.0 0.00 1.38 1.38 65 1007.2
20200408031505 76 218 0.0 6.0 0.00 1.38 1.38 65 1007.2
20200408031404 76 217 0.0 6.0 0.00 1.38 1.38 65 1007.2
20200408031304 76 215 1.0 6.0 0.00 1.38 1.38 65 1007.2
20200408031204 76 215 1.0 6.0 0.00 1.38 1.38 65 1007.2
20200408031105 76 211 1.0 6.0 0.00 1.38 1.38 65 1007.2
20200408031004 76 210 1.0 6.0 0.00 1.38 1.38 65 1007.2
20200408030904 76 210 1.0 6.0 0.00 1.38 1.38 65 1007.2
20200408030804 76 209 1.0 6.0 0.00 1.38 1.38 65 1007.2
20200408030704 76 210 1.0 4.0 0.00 1.38 1.38 65 1007.2
20200408030604 76 214 1.0 4.0 0.00 1.38 1.38 65 1007.2
20200408030504 76 216 1.0 4.0 0.00 1.38 1.38 65 1007.2
20200408030404 76 217 1.0 4.0 0.00 1.38 1.38 65 1007.2
20200408030304 76 219 1.0 4.0 0.00 1.38 1.38 65 1007.2
20200408030204 76 222 0.0 4.0 0.00 1.38 1.38 65 1007.3
20200408030104 76 220 0.0 4.0 0.00 1.38 1.38 65 1007.2
20200408030004 76 221 0.0 4.0 0.00 1.38 1.38 64 1007.2
20200408025904 76 221 0.0 4.0 0.00 1.38 1.38 64 1007.2
20200408025804 76 222 1.0 4.0 0.00 1.38 1.38 64 1007.2
20200408025704 76 215 1.0 4.0 0.00 1.38 1.38 64 1007.2
20200408025604 77 216 0.0 4.0 0.00 1.38 1.38 64 1007.2
20200408025506 77 216 0.0 3.0 0.00 1.38 1.38 64 1007.2
20200408025404 77 215 0.0 3.0 0.00 1.38 1.38 64 1007.2
20200408025304 77 215 0.0 3.0 0.00 1.38 1.38 64 1007.2
20200408025204 77 214 0.0 3.0 0.00 1.38 1.38 64 1007.2
20200408025105 77 216 0.0 3.0 0.00 1.38 1.38 64 1007.2
20200408025004 77 215 0.0 3.0 0.00 1.38 1.38 64 1007.2
20200408024904 77 217 0.0 3.0 0.00 1.38 1.38 64 1007.2
20200408024804 77 216 0.0 3.0 0.00 1.38 1.38 64 1007.1
20200408024705 77 226 0.0 3.0 0.00 1.38 1.38 64 1007.1
20200408024604 77 226 0.0 3.0 0.00 1.38 1.38 64 1007.1
20200408024505 77 225 0.0 3.0 0.00 1.38 1.38 64 1007.1
20200408024404 77 225 0.0 3.0 0.00 1.38 1.38 64 1007.1
20200408024304 77 216 0.0 3.0 0.00 1.38 1.38 64 1007.0
20200408024206 77 216 0.0 3.0 0.00 1.38 1.38 63 1007.0
20200408024104 77 208 0.0 3.0 0.00 1.38 1.38 63 1007.1
20200408024004 77 208 0.0 3.0 0.00 1.38 1.38 63 1007.0
20200408023904 77 187 0.0 2.0 0.00 1.38 1.38 63 1007.0
20200408023804 77 169 0.0 3.0 0.00 1.38 1.38 63 1007.0
20200408023705 77 152 0.0 3.0 0.00 1.38 1.38 63 1007.0
20200408023604 77 138 0.0 3.0 0.00 1.38 1.38 63 1007.0
20200408023504 77 141 0.0 3.0 0.00 1.38 1.38 63 1007.0
20200408023404 77 160 0.0 3.0 0.00 1.38 1.38 63 1007.0
20200408023304 77 179 0.0 3.0 0.00 1.38 1.38 63 1007.0
20200408023204 77 191 0.0 3.0 0.00 1.38 1.38 63 1007.0
20200408023104 77 208 0.0 3.0 0.00 1.38 1.38 63 1007.1
20200408023005 77 218 0.0 3.0 0.00 1.38 1.38 63 1007.1
20200408022904 77 225 0.0 3.0 0.00 1.38 1.38 63 1007.0
20200408022804 77 240 0.0 2.0 0.00 1.38 1.38 63 1007.0
20200408022705 77 233 0.0 2.0 0.00 1.38 1.38 63 1007.0
20200408022604 77 232 0.0 2.0 0.00 1.38 1.38 63 1007.0
20200408022509 77 232 0.0 2.0 0.00 1.38 1.38 63 1007.0
20200408022304 77 220 0.0 3.0 0.00 1.38 1.38 62 1007.0
20200408022205 77 220 0.0 3.0 0.00 1.38 1.38 62 1007.0
20200408022104 77 219 0.0 3.0 0.00 1.38 1.38 62 1007.0
20200408022004 77 214 0.0 3.0 0.00 1.38 1.38 62 1007.0
20200408021904 77 215 0.0 3.0 0.00 1.38 1.38 62 1007.0
20200408021804 77 212 0.0 3.0 0.00 1.38 1.38 62 1007.0
20200408021704 77 217 0.0 3.0 0.00 1.38 1.38 62 1007.0
20200408021604 78 217 0.0 3.0 0.00 1.38 1.38 62 1006.9
20200408021505 78 218 0.0 3.0 0.00 1.38 1.38 62 1006.9
20200408021404 78 220 0.0 4.0 0.00 1.38 1.38 62 1007.0
20200408021304 78 224 0.0 4.0 0.00 1.38 1.38 62 1006.9
20200408021204 78 215 0.0 4.0 0.00 1.38 1.38 62 1006.9
20200408021105 78 215 0.0 4.0 0.00 1.38 1.38 62 1007.0
20200408021004 78 214 0.0 4.0 0.00 1.38 1.38 62 1007.0
20200408020904 78 214 0.0 4.0 0.00 1.38 1.38 62 1007.0
20200408020804 78 213 0.0 4.0 0.00 1.38 1.38 62 1006.9
20200408020704 78 212 0.0 4.0 0.00 1.38 1.38 62 1006.9
20200408020604 78 211 0.0 4.0 0.00 1.38 1.38 62 1006.9
20200408020504 78 210 0.0 4.0 0.00 1.38 1.38 62 1006.9
20200408020404 78 204 0.0 4.0 0.00 1.38 1.38 62 1006.9
20200408020304 78 207 0.0 5.0 0.00 1.38 1.38 61 1007.0
20200408020205 78 206 0.0 5.0 0.00 1.38 1.38 61 1007.0
20200408020104 78 205 0.0 5.0 0.00 1.38 1.38 61 1006.9
20200408020004 78 205 0.0 5.0 0.00 1.38 1.38 61 1006.9
20200408015904 78 206 0.0 5.0 0.00 1.38 1.38 61 1006.9
20200408015804 78 207 0.0 5.0 0.00 1.38 1.38 61 1006.9
20200408015704 78 206 0.0 5.0 0.00 1.38 1.38 61 1006.9
20200408015604 78 207 0.0 5.0 0.00 1.38 1.38 61 1006.9
20200408015504 78 208 0.0 5.0 0.00 1.38 1.38 61 1006.8
20200408015405 78 210 0.0 5.0 0.00 1.38 1.38 61 1006.8
20200408015304 78 193 0.0 2.0 0.00 1.38 1.38 61 1006.8
20200408015204 78 222 1.0 8.0 0.00 1.38 1.38 61 1006.9
20200408015108 78 223 1.0 8.0 0.00 1.38 1.38 61 1006.9
20200408015004 78 223 1.0 8.0 0.00 1.38 1.38 61 1006.9
20200408014904 78 223 0.0 8.0 0.00 1.38 1.38 61 1006.9
20200408014804 78 224 0.0 8.0 0.00 1.38 1.38 61 1006.8
20200408014705 78 225 0.0 8.0 0.00 1.38 1.38 61 1006.8
20200408014604 78 225 0.0 8.0 0.00 1.38 1.38 61 1006.8
20200408014505 78 225 0.0 8.0 0.00 1.38 1.38 60 1006.8
20200408014404 78 225 0.0 8.0 0.00 1.38 1.38 60 1006.8
20200408014304 78 231 0.0 8.0 0.00 1.38 1.38 60 1006.8
20200408014204 78 225 0.0 3.0 0.00 1.38 1.38 60 1006.8
20200408014105 78 225 0.0 3.0 0.00 1.38 1.38 60 1006.8
20200408014005 78 225 0.0 3.0 0.00 1.38 1.38 60 1006.8
20200408013904 78 225 0.0 3.0 0.00 1.38 1.38 60 1006.7
20200408013804 78 221 0.0 3.0 0.00 1.38 1.38 60 1006.7
20200408013704 78 220 0.0 2.0 0.00 1.38 1.38 60 1006.7
20200408013604 78 221 0.0 2.0 0.00 1.38 1.38 60 1006.7
20200408013504 79 223 0.0 2.0 0.00 1.38 1.38 60 1006.7
20200408013404 79 223 0.0 2.0 0.00 1.38 1.38 60 1006.7
20200408013304 79 228 0.0 4.0 0.00 1.38 1.38 60 1006.7
20200408013205 79 228 0.0 4.0 0.00 1.38 1.38 60 1006.7
20200408013104 79 228 0.0 4.0 0.00 1.38 1.38 60 1006.7
20200408013005 79 228 0.0 4.0 0.00 1.38 1.38 59 1006.7
20200408012904 79 228 0.0 4.0 0.00 1.38 1.38 59 1006.6
20200408012804 79 228 0.0 4.0 0.00 1.38 1.38 59 1006.6
20200408012705 79 229 0.0 4.0 0.00 1.38 1.38 59 1006.6
20200408012604 79 229 0.0 4.0 0.00 1.38 1.38 59 1006.5
20200408012504 79 229 0.0 4.0 0.00 1.38 1.38 59 1006.6
20200408012404 79 229 0.0 4.0 0.00 1.38 1.38 59 1006.6
20200408012304 79 228 0.0 4.0 0.00 1.38 1.38 59 1006.5
20200408012203 79 230 0.0 4.0 0.00 1.38 1.38 59 1006.5
20200408012104 79 230 0.0 4.0 0.00 1.38 1.38 59 1006.5
20200408012004 79 230 0.0 4.0 0.00 1.38 1.38 59 1006.5
20200408011904 79 230 0.0 4.0 0.00 1.38 1.38 59 1006.5
20200408011804 79 230 0.0 4.0 0.00 1.38 1.38 59 1006.4
20200408011704 79 230 0.0 4.0 0.00 1.38 1.38 59 1006.4
20200408011604 79 229 0.0 4.0 0.00 1.38 1.38 59 1006.4
20200408011504 79 225 0.0 4.0 0.00 1.38 1.38 58 1006.4
20200408011405 79 225 0.0 4.0 0.00 1.38 1.38 58 1006.4
20200408011304 79 219 0.0 3.0 0.00 1.38 1.38 58 1006.3
20200408011204 79 214 0.0 2.0 0.00 1.38 1.38 58 1006.4
20200408011104 80 214 0.0 2.0 0.00 1.38 1.38 58 1006.3
20200408011005 80 212 0.0 2.0 0.00 1.38 1.38 58 1006.3
20200408010904 80 211 0.0 2.0 0.00 1.38 1.38 58 1006.3
20200408010804 80 201 0.0 3.0 0.00 1.38 1.38 58 1006.3
20200408010704 80 195 0.0 4.0 0.00 1.38 1.38 58 1006.3
20200408010607 80 192 0.0 4.0 0.00 1.38 1.38 58 1006.3
20200408010404 80 211 0.0 6.0 0.00 1.38 1.38 58 1006.2
20200408010304 80 210 0.0 6.0 0.00 1.38 1.38 57 1006.2
20200408010205 80 209 0.0 6.0 0.00 1.38 1.38 57 1006.2
20200408010104 80 210 0.0 6.0 0.00 1.38 1.38 57 1006.2
20200408010006 80 212 0.0 6.0 0.00 1.38 1.38 57 1006.2
20200408005904 80 216 0.0 6.0 0.00 1.38 1.38 57 1006.2
20200408005804 80 219 0.0 6.0 0.00 1.38 1.38 57 1006.2
20200408005705 80 224 0.0 6.0 0.00 1.38 1.38 57 1006.2
20200408005604 80 224 0.0 6.0 0.00 1.38 1.38 57 1006.2
20200408005504 80 218 0.0 3.0 0.00 1.38 1.38 57 1006.2
20200408005404 80 216 0.0 3.0 0.00 1.38 1.38 57 1006.2
20200408005304 80 215 0.0 3.0 0.00 1.38 1.38 57 1006.1
20200408005206 80 215 0.0 3.0 0.00 1.38 1.38 57 1006.1
20200408005104 80 213 0.0 3.0 0.00 1.38 1.38 56 1006.1
20200408005004 80 212 0.0 3.0 0.00 1.38 1.38 56 1006.1
20200408004904 80 202 0.0 2.0 0.00 1.38 1.38 56 1006.1
20200408004804 80 210 0.0 4.0 0.00 1.38 1.38 56 1006.1
20200408004704 80 215 0.0 4.0 0.00 1.38 1.38 56 1006.1
20200408004604 81 219 0.0 4.0 0.00 1.38 1.38 56 1006.1
20200408004505 81 219 0.0 4.0 0.00 1.38 1.38 56 1006.0
20200408004404 81 218 0.0 4.0 0.00 1.38 1.38 56 1006.0
20200408004304 81 219 0.0 4.0 0.00 1.38 1.38 56 1006.0
20200408004204 81 219 0.0 4.0 0.00 1.38 1.38 55 1006.0
20200408004104 81 220 1.0 4.0 0.00 1.38 1.38 55 1006.0
20200408004005 81 227 1.0 8.0 0.00 1.38 1.38 55 1006.0
20200408003904 81 227 1.0 8.0 0.00 1.38 1.38 55 1006.0
20200408003804 81 228 1.0 8.0 0.00 1.38 1.38 55 1006.0
20200408003704 81 228 1.0 8.0 0.00 1.38 1.38 55 1006.0
20200408003605 81 230 1.0 8.0 0.00 1.38 1.38 55 1006.0
20200408003504 81 230 1.0 8.0 0.00 1.38 1.38 55 1005.9
20200408003404 81 230 2.0 8.0 0.00 1.38 1.38 54 1005.9
20200408003305 81 231 2.0 8.0 0.00 1.38 1.38 54 1006.0
20200408003204 82 231 2.0 8.0 0.00 1.38 1.38 55 1006.0
20200408003104 82 230 2.0 8.0 0.00 1.38 1.38 54 1006.0
20200408003005 82 228 2.0 8.0 0.00 1.38 1.38 54 1005.9
20200408002904 82 227 2.0 8.0 0.00 1.38 1.38 54 1005.9
20200408002804 82 227 2.0 8.0 0.00 1.38 1.38 54 1005.9
20200408002704 82 227 2.0 8.0 0.00 1.38 1.38 54 1005.9
20200408002604 82 225 2.0 6.0 0.00 1.38 1.38 54 1005.9
20200408002504 82 224 2.0 8.0 0.00 1.38 1.38 54 1005.9
20200408002404 82 226 2.0 11.0 0.00 1.38 1.38 54 1005.9
20200408002304 82 226 2.0 11.0 0.00 1.38 1.38 53 1005.9
20200408002204 82 226 2.0 11.0 0.00 1.38 1.38 54 1005.9
20200408002105 82 227 2.0 11.0 0.00 1.38 1.38 53 1005.9
20200408002004 82 229 2.0 11.0 0.00 1.38 1.38 53 1005.9
20200408001904 82 229 2.0 11.0 0.00 1.38 1.38 53 1005.9
20200408001804 82 229 2.0 11.0 0.00 1.38 1.38 53 1005.9
20200408001704 82 230 3.0 11.0 0.00 1.38 1.38 53 1005.9
20200408001604 82 230 2.0 11.0 0.00 1.38 1.38 53 1005.9
20200408001505 83 232 2.0 11.0 0.00 1.38 1.38 53 1005.9
20200408001405 83 232 2.0 9.0 0.00 1.38 1.38 53 1005.9
20200408001010 83 231 2.0 7.0 0.00 1.38 1.38 52 1005.8
20200408000909 83 231 2.0 7.0 0.00 1.38 1.38 52 1005.8
20200408000804 83 230 2.0 7.0 0.00 1.38 1.38 52 1005.8
20200408000704 83 230 2.0 7.0 0.00 1.38 1.38 52 1005.8
20200408000604 83 231 2.0 7.0 0.00 1.38 1.38 52 1005.8
20200408000505 83 230 2.0 7.0 0.00 1.38 1.38 52 1005.7
20200408000405 83 230 2.0 7.0 0.00 1.38 1.38 51 1005.7
20200408000304 83 228 2.0 7.0 0.00 1.38 1.38 51 1005.8
20200408000204 83 232 2.0 10.0 0.00 1.38 1.38 51 1005.8
20200408000104 83 233 2.0 10.0 0.00 1.38 1.38 51 1005.8
20200408000005 84 232 2.0 10.0 0.00 1.38 1.38 51 1005.8
20200407235904 84 231 2.0 10.0 0.00 1.38 1.38 51 1005.7
20200407235804 84 231 3.0 10.0 0.00 1.38 1.38 51 1005.8
20200407235704 84 233 3.0 10.0 0.00 1.38 1.38 50 1005.7
20200407235604 84 235 3.0 10.0 0.00 1.38 1.38 51 1005.7
20200407235504 84 235 3.0 10.0 0.00 1.38 1.38 50 1005.8
20200407235404 84 234 3.0 10.0 0.00 1.38 1.38 50 1005.8
20200407235304 84 232 2.0 10.0 0.00 1.38 1.38 50 1005.7
20200407235204 84 230 3.0 9.0 0.00 1.38 1.38 50 1005.7
20200407235104 84 228 3.0 9.0 0.00 1.38 1.38 50 1005.7
20200407235004 84 228 2.0 9.0 0.00 1.38 1.38 49 1005.7
20200407234904 84 229 3.0 9.0 0.00 1.38 1.38 49 1005.7
20200407234804 84 229 3.0 9.0 0.00 1.38 1.38 49 1005.7
20200407234705 84 229 2.0 9.0 0.00 1.38 1.38 49 1005.7
20200407234604 84 226 2.0 9.0 0.00 1.38 1.38 49 1005.7
20200407234504 84 227 3.0 9.0 0.00 1.38 1.38 49 1005.7
20200407234404 85 227 3.0 9.0 0.00 1.38 1.38 49 1005.7
20200407234304 85 228 3.0 9.0 0.00 1.38 1.38 49 1005.7
20200407234204 85 226 2.0 9.0 0.00 1.38 1.38 49 1005.7
20200407234104 85 224 3.0 9.0 0.00 1.38 1.38 49 1005.7
20200407234004 85 224 3.0 11.0 0.00 1.38 1.38 49 1005.7
20200407233904 85 226 3.0 11.0 0.00 1.38 1.38 49 1005.7
20200407233805 85 225 2.0 11.0 0.00 1.38 1.38 49 1005.6
20200407233704 85 223 2.0 11.0 0.00 1.38 1.38 49 1005.6
20200407233604 85 223 2.0 11.0 0.00 1.38 1.38 49 1005.6
20200407233505 85 224 2.0 11.0 0.00 1.38 1.38 49 1005.6
20200407233405 85 224 2.0 11.0 0.00 1.38 1.38 48 1005.6
20200407233304 85 226 2.0 11.0 0.00 1.38 1.38 48 1005.6
20200407233204 85 230 2.0 11.0 0.00 1.38 1.38 48 1005.6
20200407233104 86 235 2.0 11.0 0.00 1.38 1.38 48 1005.6
20200407233005 86 237 2.0 7.0 0.00 1.38 1.38 49 1005.6
20200407232904 86 235 2.0 7.0 0.00 1.38 1.38 49 1005.6
20200407232804 86 234 2.0 7.0 0.00 1.38 1.38 48 1005.6
20200407232704 86 232 2.0 7.0 0.00 1.38 1.38 48 1005.6
20200407232604 86 230 2.0 7.0 0.00 1.38 1.38 48 1005.7
20200407232504 86 227 2.0 7.0 0.00 1.38 1.38 48 1005.7
20200407232404 86 228 2.0 7.0 0.00 1.38 1.38 48 1005.6
20200407232305 86 226 2.0 7.0 0.00 1.38 1.38 48 1005.7
20200407232204 86 231 3.0 9.0 0.00 1.38 1.38 48 1005.7
20200407232104 86 233 3.0 9.0 0.00 1.38 1.38 48 1005.6
20200407232005 86 233 2.0 9.0 0.00 1.38 1.38 47 1005.6
20200407231904 86 233 2.0 9.0 0.00 1.38 1.38 47 1005.7
20200407231804 86 233 2.0 9.0 0.00 1.38 1.38 47 1005.7
20200407231704 86 235 2.0 9.0 0.00 1.38 1.38 47 1005.6
20200407231605 86 237 3.0 9.0 0.00 1.38 1.38 48 1005.7
20200407231504 86 239 2.0 9.0 0.00 1.38 1.38 47 1005.7
20200407231405 86 239 2.0 9.0 0.00 1.38 1.38 47 1005.7
20200407231305 86 239 2.0 9.0 0.00 1.38 1.38 47 1005.7
20200407231204 86 236 1.0 9.0 0.00 1.38 1.38 47 1005.7
20200407231104 86 230 1.0 8.0 0.00 1.38 1.38 48 1005.7
20200407231005 86 229 1.0 8.0 0.00 1.38 1.38 47 1005.6
20200407230904 86 231 1.0 8.0 0.00 1.38 1.38 47 1005.6
20200407230804 86 234 1.0 8.0 0.00 1.38 1.38 47 1005.6
20200407230704 86 233 2.0 8.0 0.00 1.38 1.38 48 1005.6
20200407230604 86 233 1.0 8.0 0.00 1.38 1.38 47 1005.6
20200407230505 86 232 1.0 7.0 0.00 1.38 1.38 47 1005.6
20200407230404 86 232 2.0 7.0 0.00 1.38 1.38 47 1005.6
20200407230304 86 234 2.0 7.0 0.00 1.38 1.38 47 1005.6
20200407230204 86 234 2.0 7.0 0.00 1.38 1.38 48 1005.6
20200407230104 86 231 2.0 7.0 0.00 1.38 1.38 47 1005.6
20200407230004 86 229 3.0 7.0 0.00 1.38 1.38 48 1005.6
20200407225904 86 229 3.0 9.0 0.00 1.38 1.38 47 1005.5
20200407225804 86 227 3.0 9.0 0.00 1.38 1.38 47 1005.5
20200407225704 86 226 3.0 9.0 0.00 1.38 1.38 48 1005.5
20200407225604 86 226 3.0 13.0 0.00 1.38 1.38 47 1005.5
20200407225505 86 226 3.0 13.0 0.00 1.38 1.38 48 1005.5
20200407225404 86 226 3.0 13.0 0.00 1.38 1.38 47 1005.5
20200407225304 86 224 3.0 13.0 0.00 1.38 1.38 47 1005.5
20200407225204 86 225 3.0 13.0 0.00 1.38 1.38 48 1005.5
20200407225104 86 226 3.0 13.0 0.00 1.38 1.38 47 1005.5
20200407225004 86 226 3.0 13.0 0.00 1.38 1.38 47 1005.5
20200407224904 87 223 3.0 13.0 0.00 1.38 1.38 47 1005.5
20200407224804 87 223 3.0 13.0 0.00 1.38 1.38 47 1005.5
20200407224704 87 221 3.0 13.0 0.00 1.38 1.38 48 1005.5
20200407224604 87 218 2.0 10.0 0.00 1.38 1.38 48 1005.5
20200407224505 87 215 3.0 8.0 0.00 1.38 1.38 48 1005.5
20200407224404 87 218 3.0 8.0 0.00 1.38 1.38 49 1005.6
20200407224304 87 222 3.0 8.0 0.00 1.38 1.38 49 1005.5
20200407224205 87 220 3.0 8.0 0.00 1.38 1.38 48 1005.6